I-5 : 3.5 Miles South of SR-198 Atmospheric Data: 11/28/2020 Summary  Detailed Graphs  Station List

  Temperature     Wind Precipitation Visibility
Timestamp Air Wet
Bulb
Dew-
point
24-hr
Max
24-hr
Min
Relative
Humidity
Atmospheric
Pressure
Avg
Speed
Avg
Dir
Spot
Speed
Spot
Dir
Max
Speed
Max
Dir
  Rate Situation Start End 1 hr 3 hr 6 hr 12 hr 24 hr   Situation
Date Time °F °F °F °F °F % in Hg mph ° mph ° mph ° Y/N in/hr text Date Time Date Time in in in in in mi text
11/28/2020 12:00 AM 41.18 35.42 -11.38 67.10 31.64 9.0 Not Reported 2.91 S 3.80 SW 3.80 SW x x Other     x x x x x 29.84 Unknown
11/28/2020 12:01 AM 41.18 35.42 -11.38 67.10 31.64 9.0 Not Reported 3.36 S 3.58 SW 4.03 SW x x Other     x x x x x 29.84 Unknown
11/28/2020 12:02 AM 41.00 35.42 -11.56 67.10 31.64 9.0 Not Reported 3.58 S 2.91 SE 4.92 S x x Other     x x x x x 29.84 Unknown
11/28/2020 12:03 AM 41.00 35.42 -11.56 67.10 31.64 9.0 Not Reported 2.91 S 2.46 S 4.92 S x x Other     x x x x x 29.84 Unknown
11/28/2020 12:04 AM 40.82 35.24 -11.56 67.10 31.64 9.0 Not Reported 2.24 S 2.68 S 4.92 S x x Other     x x x x x 29.84 Unknown
11/28/2020 12:05 AM 40.82 35.24 -11.74 67.10 31.64 9.0 Not Reported 2.46 S 3.36 S 4.92 S x x Other     x x x x x 29.84 Unknown
11/28/2020 12:06 AM 40.64 35.06 -11.74 67.10 31.64 9.0 Not Reported 2.68 S 2.91 S 4.92 S x x Other     x x x x x 29.84 Unknown
11/28/2020 12:07 AM 40.64 35.06 -11.74 67.10 31.64 9.0 Not Reported 2.91 S 1.79 S 4.92 S x x Other     x x x x x 29.84 Unknown
11/28/2020 12:08 AM 40.64 35.06 -11.74 67.10 31.64 9.0 Not Reported 3.13 S 3.58 S 4.92 S x x Other     x x x x x 29.84 Unknown
11/28/2020 12:09 AM 40.64 35.06 -11.74 67.10 31.64 9.0 Not Reported 3.36 S 4.03 SW 4.92 S x x Other     x x x x x 29.84 Unknown
11/28/2020 12:10 AM 40.64 35.06 -11.74 67.10 31.64 9.0 Not Reported 3.58 S 2.46 S 4.92 S x x Other     x x x x x 29.84 Unknown
11/28/2020 12:11 AM 40.46 35.06 -11.92 67.10 31.64 9.0 Not Reported 3.36 S 2.91 S 4.70 S x x Other     x x x x x 29.84 Unknown
11/28/2020 12:12 AM 40.46 35.06 -11.92 67.10 31.64 9.0 Not Reported 3.13 S 4.47 SW 4.70 S x x Other     x x x x x 29.84 Unknown
11/28/2020 12:13 AM 40.28 34.88 -12.10 67.10 31.64 9.0 Not Reported 3.36 SW 3.13 S 4.70 S x x Other     x x x x x 29.84 Unknown
11/28/2020 12:14 AM 40.28 34.88 -12.10 67.10 31.64 9.0 Not Reported 3.58 S 2.68 SW 4.92 SW x x Other     x x x x x 29.84 Unknown
11/28/2020 12:15 AM 40.28 34.88 -12.10 67.10 31.64 9.0 Not Reported 3.58 SW 3.13 S 4.92 SW x x Other     x x x x x 29.84 Unknown
11/28/2020 12:17 AM 40.46 34.88 -11.92 67.10 31.64 9.0 Not Reported 2.91 SW 2.24 S 4.92 SW x x Other     x x x x x 29.84 Unknown
11/28/2020 12:18 AM 40.46 34.88 -11.92 67.10 31.64 9.0 Not Reported 3.36 S 3.80 S 4.92 SW x x Other     x x x x x 29.84 Unknown
11/28/2020 12:19 AM 40.46 34.88 -11.92 67.10 31.64 9.0 Not Reported 3.80 S 3.13 SW 4.92 SW x x Other     x x x x x 29.84 Unknown
11/28/2020 12:20 AM 40.28 34.88 -12.10 67.10 31.64 9.0 Not Reported 3.80 SW 5.37 SW 5.59 SW x x Other     x x x x x 29.84 Unknown
11/28/2020 12:21 AM 40.28 34.88 -12.10 67.10 31.64 9.0 Not Reported 4.03 SW 4.70 SW 5.59 SW x x Other     x x x x x 29.84 Unknown
11/28/2020 12:22 AM 40.28 34.88 -12.10 67.10 31.64 9.0 Not Reported 4.03 SW 2.46 S 5.59 SW x x Other     x x x x x 29.84 Unknown
11/28/2020 12:23 AM 40.28 34.88 -12.10 67.10 31.64 9.0 Not Reported 4.47 SW 4.03 S 5.82 SW x x Other     x x x x x 29.84 Unknown
11/28/2020 12:24 AM 40.28 34.88 -12.10 67.10 31.64 9.0 Not Reported 4.47 SW 4.25 SW 5.82 SW x x Other     x x x x x 29.84 Unknown
11/28/2020 12:25 AM 40.28 34.88 -12.10 67.10 31.64 9.0 Not Reported 4.25 SW 5.37 SW 5.82 SW x x Other     x x x x x 29.84 Unknown
11/28/2020 12:26 AM 40.28 34.88 -12.10 67.10 31.64 9.0 Not Reported 4.25 SW 4.25 S 5.82 SW x x Other     x x x x x 29.84 Unknown
11/28/2020 12:27 AM 40.28 34.88 -12.10 67.10 31.64 9.0 Not Reported 3.80 SW 3.36 S 5.82 SW x x Other     x x x x x 29.84 Unknown
11/28/2020 12:28 AM 40.10 34.70 -12.10 67.10 31.64 9.0 Not Reported 3.80 SW 4.25 SW 5.82 SW x x Other     x x x x x 29.84 Unknown
11/28/2020 12:29 AM 40.28 34.88 -12.10 67.10 31.64 9.0 Not Reported 3.80 SW 3.58 SW 5.82 SW x x Other     x x x x x 29.84 Unknown
11/28/2020 12:30 AM 40.28 34.88 -12.10 67.10 31.64 9.0 Not Reported 4.25 SW 3.13 SW 6.04 SW x x Other     x x x x x 29.84 Unknown
11/28/2020 12:31 AM 40.46 35.06 -11.92 67.10 31.64 9.0 Not Reported 4.70 SW 5.14 SW 6.04 SW x x Other     x x x x x 29.84 Unknown
11/28/2020 12:32 AM 40.46 35.06 -11.92 67.10 31.64 9.0 Not Reported 4.47 SW 4.47 S 6.04 SW x x Other     x x x x x 29.84 Unknown
11/28/2020 12:33 AM 40.28 34.88 -12.10 67.10 31.64 9.0 Not Reported 4.70 SW 6.26 SW 6.71 S x x Other     x x x x x 29.84 Unknown
11/28/2020 12:34 AM 40.28 34.88 -12.10 67.10 31.64 9.0 Not Reported 4.92 SW 6.04 SW 6.93 SW x x Other     x x x x x 29.84 Unknown
11/28/2020 12:35 AM 40.28 34.88 -12.10 67.10 31.64 9.0 Not Reported 4.47 SW 5.14 SW 6.93 SW x x Other     x x x x x 29.84 Unknown
11/28/2020 12:36 AM 40.28 34.88 -12.10 67.10 31.64 9.0 Not Reported 4.70 SW 5.82 SW 6.93 SW x x Other     x x x x x 29.84 Unknown
11/28/2020 12:38 AM 40.46 35.06 -11.92 67.10 31.64 9.0 Not Reported 5.14 SW 6.04 SW 6.93 SW x x Other     x x x x x 29.84 Unknown
11/28/2020 12:39 AM 40.46 35.06 -11.92 67.10 31.64 9.0 Not Reported 5.37 SW 3.13 S 6.93 SW x x Other     x x x x x 29.84 Unknown
11/28/2020 12:40 AM 40.28 34.88 -12.10 67.10 31.64 9.0 Not Reported 4.92 SW 4.70 SW 6.93 SW x x Other     x x x x x 29.84 Unknown
11/28/2020 12:41 AM 40.28 34.88 -12.10 67.10 31.64 9.0 Not Reported 4.92 SW 4.70 SW 6.93 SW x x Other     x x x x x 29.84 Unknown
11/28/2020 12:42 AM 40.28 34.88 -12.10 67.10 31.64 9.0 Not Reported 5.14 SW 3.80 SW 6.93 SW x x Other     x x x x x 29.84 Unknown
11/28/2020 12:43 AM 40.28 34.88 -12.10 67.10 31.64 9.0 Not Reported 5.14 SW 6.04 SW 6.93 SW x x Other     x x x x x 29.84 Unknown
11/28/2020 12:44 AM 40.46 34.88 -11.92 67.10 31.64 9.0 Not Reported 5.14 SW 4.47 SW 7.16 SW x x Other     x x x x x 29.84 Unknown
11/28/2020 12:45 AM 40.46 35.06 -11.92 67.10 31.64 9.0 Not Reported 5.82 SW 5.37 S 7.38 SW x x Other     x x x x x 29.84 Unknown
11/28/2020 12:46 AM 40.64 35.06 -11.74 67.10 31.64 9.0 Not Reported 5.82 SW 3.80 SW 7.38 SW x x Other     x x x x x 29.84 Unknown
11/28/2020 12:47 AM 40.64 35.06 -11.74 67.10 31.64 9.0 Not Reported 5.37 SW 5.59 SW 7.38 SW x x Other     x x x x x 29.84 Unknown
11/28/2020 12:48 AM 40.64 35.06 -11.74 67.10 31.64 9.0 Not Reported 4.92 SW 4.70 SW 7.38 SW x x Other     x x x x x 29.84 Unknown
11/28/2020 12:49 AM 40.64 35.06 -11.74 67.10 31.64 9.0 Not Reported 4.70 SW 6.26 SW 7.38 SW x x Other     x x x x x 29.84 Unknown
11/28/2020 12:50 AM 40.64 35.06 -11.74 67.10 31.64 9.0 Not Reported 4.92 SW 5.82 SW 7.38 SW x x Other     x x x x x 29.84 Unknown
11/28/2020 12:51 AM 40.64 35.06 -11.74 67.10 31.64 9.0 Not Reported 5.14 SW 3.80 SW 7.38 SW x x Other     x x x x x 29.84 Unknown
11/28/2020 12:52 AM 40.64 35.06 -11.74 67.10 31.64 9.0 Not Reported 5.37 SW 5.14 S 7.38 SW x x Other     x x x x x 29.84 Unknown
11/28/2020 12:53 AM 40.64 35.06 -11.74 67.10 31.64 9.0 Not Reported 5.59 SW 6.26 SW 7.38 SW x x Other     x x x x x 29.84 Other
11/28/2020 12:54 AM 40.64 35.06 -11.74 67.10 31.64 9.0 Not Reported 5.37 SW 4.47 SW 6.93 S x x Other     x x x x x 29.84 Unknown
11/28/2020 12:55 AM 40.46 35.06 -11.92 67.10 31.64 9.0 Not Reported 5.14 SW 5.59 SW 6.93 S x x Other     x x x x x 29.84 Unknown
11/28/2020 12:56 AM 40.46 35.06 -11.92 67.10 31.64 9.0 Not Reported 5.37 SW 6.04 S 6.93 S x x Other     x x x x x 29.84 Unknown
11/28/2020 12:57 AM 40.46 35.06 -11.92 67.10 31.64 9.0 Not Reported 5.59 SW 6.04 SW 6.93 S x x Other     x x x x x 29.84 Unknown
11/28/2020 12:58 AM 40.46 35.06 -11.92 67.10 31.64 9.0 Not Reported 5.59 SW 5.37 SW 7.16 S x x Other     x x x x x 29.84 Unknown
11/28/2020 12:59 AM 40.46 34.88 -11.92 67.10 31.64 9.0 Not Reported 5.59 SW 5.14 S 7.16 S x x Other     x x x x x 29.84 Unknown
11/28/2020 01:00 AM 40.28 34.88 -12.10 67.10 31.64 9.0 Not Reported 5.59 SW 5.14 SW 7.16 S x x Other     x x x x x 29.84 Unknown
11/28/2020 01:01 AM 40.28 34.88 -12.10 67.10 31.64 9.0 Not Reported 5.59 SW 6.04 S 7.16 SW x x Other     x x x x x 29.84 Unknown
11/28/2020 01:02 AM 40.28 34.88 -12.10 67.10 31.64 9.0 Not Reported 6.26 SW 5.14 SW 7.61 SW x x Other     x x x x x 29.84 Unknown
11/28/2020 01:03 AM 40.46 34.88 -11.92 67.10 31.64 9.0 Not Reported 6.26 SW 6.71 SW 7.61 SW x x Other     x x x x x 29.84 Unknown
11/28/2020 01:04 AM 40.64 35.06 -11.74 67.10 31.64 9.0 Not Reported 6.49 SW 6.04 S 8.28 SW x x Other     x x x x x 29.84 Unknown
11/28/2020 01:05 AM 40.46 35.06 -11.92 67.10 31.64 9.0 Not Reported 6.93 x 8.28 SW 8.72 SW x x Other     x x x x x 29.84 Unknown
11/28/2020 01:06 AM 40.64 35.06 -11.74 67.10 31.64 9.0 Not Reported 7.16 SW 6.93 S 8.72 SW x x Other     x x x x x 29.84 Unknown
11/28/2020 01:07 AM 40.64 35.06 -11.74 67.10 31.64 9.0 Not Reported 7.16 SW 6.71 SW 8.72 SW x x Other     x x x x x 29.84 Unknown
11/28/2020 01:08 AM 40.82 35.24 -11.74 67.10 31.64 9.0 Not Reported 6.93 SW 6.71 SW 8.72 SW x x Other     x x x x x 29.84 Unknown
11/28/2020 01:09 AM 40.82 35.24 -11.74 67.10 31.64 9.0 Not Reported 6.71 SW 6.71 SW 8.72 SW x x Other     x x x x x 29.84 Unknown
11/28/2020 01:10 AM 40.82 35.24 -11.56 67.10 31.64 9.0 Not Reported 6.26 SW 6.26 SW 8.72 SW x x Other     x x x x x 29.84 Unknown
11/28/2020 01:11 AM 40.82 35.24 -11.74 67.10 31.64 9.0 Not Reported 6.04 SW 5.59 SW 8.72 SW x x Other     x x x x x 29.84 Unknown
11/28/2020 01:12 AM 40.82 35.24 -11.74 67.10 31.64 9.0 Not Reported 6.04 SW 5.82 SW 8.72 SW x x Other     x x x x x 29.84 Unknown
11/28/2020 01:13 AM 40.82 35.24 -11.74 67.10 31.64 9.0 Not Reported 5.82 SW 5.82 SW 8.72 SW x x Other     x x x x x 29.84 Unknown
11/28/2020 01:14 AM 40.82 35.24 -11.74 67.10 31.64 9.0 Not Reported 5.59 SW 4.47 S 8.50 SW x x Other     x x x x x 29.84 Unknown
11/28/2020 01:15 AM 40.64 35.06 -11.74 67.10 31.64 9.0 Not Reported 4.92 SW 4.25 SW 8.28 SW x x Other     x x x x x 29.84 Unknown
11/28/2020 01:16 AM 40.64 35.06 -11.74 67.10 31.64 9.0 Not Reported 4.70 SW 6.04 SW 8.28 SW x x Other     x x x x x 29.84 Unknown
11/28/2020 01:17 AM 40.28 34.88 -11.92 67.10 31.64 9.0 Not Reported 4.47 SW 4.70 SW 7.61 SW x x Other     x x x x x 29.84 Unknown
11/28/2020 01:18 AM 40.28 34.88 -12.10 67.10 31.64 9.0 Not Reported 4.47 SW 5.37 SW 7.38 SW x x Other     x x x x x 29.84 Unknown
11/28/2020 01:19 AM 40.10 34.70 -12.10 67.10 31.64 9.0 Not Reported 4.92 SW 5.82 S 7.16 SW x x Other     x x x x x 29.84 Unknown
11/28/2020 01:20 AM 39.92 34.52 -12.28 67.10 31.64 9.0 Not Reported 5.37 SW 5.37 SW 7.16 SW x x Other     x x x x x 29.84 Unknown
11/28/2020 01:21 AM 39.92 34.52 -12.46 67.10 31.64 9.0 Not Reported 5.59 SW 4.25 S 7.16 SW x x Other     x x x x x 29.84 Unknown
11/28/2020 01:22 AM 39.74 34.34 -12.46 67.10 31.64 9.0 Not Reported 6.04 SW 3.80 SW 7.83 SW x x Other     x x x x x 29.84 Unknown
11/28/2020 01:23 AM 39.56 34.34 -12.64 67.10 31.64 9.0 Not Reported 6.04 SW 5.37 SW 7.83 SW x x Other     x x x x x 29.84 Unknown
11/28/2020 01:24 AM 39.56 34.16 -12.64 67.10 31.64 9.0 Not Reported 5.82 SW 5.14 SW 7.83 SW x x Other     x x x x x 29.84 Unknown
11/28/2020 01:25 AM 39.38 34.16 -12.82 67.10 31.64 9.0 Not Reported 5.82 SW 6.04 SW 7.83 SW x x Other     x x x x x 29.84 Unknown
11/28/2020 01:26 AM 39.38 34.16 -12.82 67.10 31.64 9.0 Not Reported 5.82 SW 6.93 SW 7.83 SW x x Other     x x x x x 29.84 Unknown
11/28/2020 01:27 AM 39.20 33.98 -12.82 67.10 31.64 9.0 Not Reported 5.82 SW 7.38 SW 7.83 SW x x Other     x x x x x 29.84 Unknown
11/28/2020 01:28 AM 39.20 33.80 -12.82 67.10 31.64 9.0 Not Reported 6.26 SW 5.82 SW 7.83 SW x x Other     x x x x x 29.84 Unknown
11/28/2020 01:29 AM 39.02 33.80 -13.00 67.10 31.64 9.0 Not Reported 6.04 SW 6.04 SW 7.83 SW x x Other     x x x x x 29.84 Unknown
11/28/2020 01:30 AM 38.84 33.62 -13.18 67.10 31.64 9.0 Not Reported 5.82 SW 5.14 SW 7.83 SW x x Other     x x x x x 29.84 Unknown
11/28/2020 01:31 AM 39.02 33.80 -13.00 67.10 31.64 9.0 Not Reported 5.37 SW 5.37 SW 7.61 S x x Other     x x x x x 29.84 Unknown
11/28/2020 01:32 AM 38.66 33.62 -13.18 67.10 31.64 9.0 Not Reported 4.70 SW 3.58 W 7.61 S x x Other     x x x x x 29.84 Unknown
11/28/2020 01:33 AM 38.66 33.44 -13.36 67.10 31.64 9.0 Not Reported 4.25 SW 4.03 SW 7.61 S x x Other     x x x x x 29.84 Unknown
11/28/2020 01:34 AM 38.66 33.44 -13.36 67.10 31.64 9.0 Not Reported 4.03 SW 4.47 SW 7.61 S x x Other     x x x x x 29.84 Unknown
11/28/2020 01:35 AM 38.48 33.26 -13.54 67.10 31.64 9.0 Not Reported 3.80 SW 4.47 SW 7.61 S x x Other     x x x x x 29.84 Unknown
11/28/2020 01:36 AM 38.48 33.26 -13.54 67.10 31.64 9.0 Not Reported 3.80 SW 2.68 SW 7.61 S x x Other     x x x x x 29.84 Unknown
11/28/2020 01:37 AM 38.30 33.26 -13.54 67.10 31.64 9.0 Not Reported 3.80 SW 4.25 SW 7.16 SW x x Other     x x x x x 29.84 Unknown
11/28/2020 01:38 AM 38.12 33.08 -13.72 67.10 31.64 9.0 Not Reported 3.80 SW 4.03 SW 6.71 SW x x Other     x x x x x 29.84 Unknown
11/28/2020 01:39 AM 38.12 33.08 -13.72 67.10 31.64 9.0 Not Reported 4.03 SW 4.70 SW 6.26 SW x x Other     x x x x x 29.84 Unknown
11/28/2020 01:40 AM 38.12 33.08 -13.72 67.10 31.64 9.0 Not Reported 3.80 SW 2.91 S 5.59 SW x x Other     x x x x x 29.84 Unknown
11/28/2020 01:41 AM 37.94 32.90 -13.90 67.10 31.64 9.0 Not Reported 4.03 SW 3.58 SW 5.59 SW x x Other     x x x x x 29.84 Unknown
11/28/2020 01:42 AM 37.94 32.90 -13.90 67.10 31.64 9.0 Not Reported 4.03 SW 4.25 SW 5.59 SW x x Other     x x x x x 29.84 Unknown
11/28/2020 01:43 AM 37.94 32.90 -13.90 67.10 31.64 9.0 Not Reported 4.25 SW 4.47 SW 5.59 SW x x Other     x x x x x 29.84 Unknown
11/28/2020 01:44 AM 37.94 32.90 -13.90 67.10 31.64 9.0 Not Reported 4.25 SW 3.36 SW 5.59 SW x x Other     x x x x x 29.84 Unknown
11/28/2020 01:45 AM 37.94 32.90 -13.90 67.10 31.64 9.0 Not Reported 3.80 SW 4.70 SW 5.59 SW x x Other     x x x x x 29.84 Unknown
11/28/2020 01:46 AM 37.94 32.90 -13.90 67.10 31.64 9.0 Not Reported 3.80 SW 4.25 S 5.59 SW x x Other     x x x x x 29.84 Unknown
11/28/2020 01:47 AM 37.94 32.90 -13.90 67.10 31.64 9.0 Not Reported 3.58 SW 4.25 SW 5.59 SW x x Other     x x x x x 29.84 Unknown
11/28/2020 01:48 AM 37.94 32.90 -13.90 67.10 31.64 9.0 Not Reported 3.80 SW 4.70 SW 5.59 SW x x Other     x x x x x 29.84 Unknown
11/28/2020 01:49 AM 37.76 32.72 -13.90 67.10 31.64 9.0 Not Reported 4.70 SW 4.47 SW 6.26 SW x x Other     x x x x x 29.84 Unknown
11/28/2020 01:50 AM 37.76 32.72 -13.90 67.10 31.64 9.0 Not Reported 4.92 SW 4.70 SW 6.26 SW x x Other     x x x x x 29.84 Unknown
11/28/2020 01:51 AM 37.76 32.72 -13.90 67.10 31.64 9.0 Not Reported 4.92 SW 5.59 SW 6.26 SW x x Other     x x x x x 29.84 Unknown
11/28/2020 01:52 AM 37.76 32.72 -13.90 67.10 31.64 9.0 Not Reported 4.25 SW 2.68 SW 6.26 SW x x Other     x x x x x 29.84 Unknown
11/28/2020 01:53 AM 37.76 32.72 -13.90 67.10 31.64 9.0 Not Reported 4.47 SW 3.58 SW 6.26 SW x x Other     x x x x x 29.84 Unknown
11/28/2020 01:54 AM 37.76 32.72 -14.08 67.10 31.64 9.0 Not Reported 4.25 SW 3.36 SW 6.26 SW x x Other     x x x x x 29.84 Unknown
11/28/2020 01:55 AM 37.76 32.72 -13.90 67.10 31.64 9.0 Not Reported 3.80 SW 4.25 SW 6.26 SW x x Other     x x x x x 29.84 Unknown
11/28/2020 01:56 AM 37.58 32.72 -14.08 67.10 31.64 9.0 Not Reported 3.58 SW 2.68 SW 6.26 SW x x Other     x x x x x 29.84 Unknown
11/28/2020 01:57 AM 37.58 32.72 -14.08 67.10 31.64 9.0 Not Reported 2.91 SW 3.36 SW 6.26 SW x x Other     x x x x x 29.84 Unknown
11/28/2020 01:58 AM 37.40 32.54 -14.26 67.10 31.64 9.0 Not Reported 2.91 SW 2.01 W 6.26 SW x x Other     x x x x x 29.84 Unknown
11/28/2020 01:59 AM 37.40 32.54 -14.44 67.10 31.64 9.0 Not Reported 3.36 SW 3.36 W 6.26 SW x x Other     x x x x x 29.84 Unknown
11/28/2020 02:00 AM 37.22 32.36 -14.44 67.10 31.64 9.0 Not Reported 3.13 SW 2.01 SW 6.26 SW x x Other     x x x x x 29.84 Unknown
11/28/2020 02:01 AM 37.22 32.36 -14.44 67.10 31.64 9.0 Not Reported 2.91 SW 2.24 SW 6.26 SW x x Other     x x x x x 29.84 Unknown
11/28/2020 02:02 AM 37.04 32.18 -14.62 67.10 31.64 9.0 Not Reported 2.68 SW 1.79 SW 5.37 SW x x Other     x x x x x 29.84 Unknown
11/28/2020 02:03 AM 36.86 32.00 -14.80 67.10 31.64 9.0 Not Reported 2.68 S 2.91 W 5.37 SW x x Other     x x x x x 29.84 Unknown
11/28/2020 02:04 AM 36.86 32.00 -14.80 67.10 31.64 9.0 Not Reported 3.13 SW 2.91 SW 5.14 SW x x Other     x x x x x 29.84 Unknown
11/28/2020 02:05 AM 36.68 31.82 -14.80 67.10 31.64 9.0 Not Reported 3.36 SW 3.58 SW 5.14 SW x x Other     x x x x x 29.84 Unknown
11/28/2020 02:06 AM 36.68 31.82 -14.98 67.10 31.64 9.0 Not Reported 3.13 SW 3.13 SW 5.14 SW x x Other     x x x x x 29.84 Unknown
11/28/2020 02:07 AM 36.50 31.82 -14.98 67.10 31.64 9.0 Not Reported 3.58 SW 3.13 SW 4.92 SW x x Other     x x x x x 29.84 Unknown
11/28/2020 02:08 AM 36.32 31.64 -15.16 67.10 31.64 9.0 Not Reported 3.36 SW 2.91 SW 4.92 SW x x Other     x x x x x 29.84 Unknown
11/28/2020 02:09 AM 36.32 31.64 -15.16 67.10 31.64 9.0 Not Reported 2.68 SW 0.89 S 4.92 SW x x Other     x x x x x 29.84 Unknown
11/28/2020 02:10 AM 36.32 31.64 -15.16 67.10 31.64 9.0 Not Reported 2.24 SW 3.58 SW 4.92 SW x x Other     x x x x x 29.84 Unknown
11/28/2020 02:11 AM 36.14 31.46 -15.16 67.10 31.64 9.0 Not Reported 2.68 SW 1.79 SW 4.92 SW x x Other     x x x x x 29.84 Unknown
11/28/2020 02:12 AM 36.14 31.46 -15.34 67.10 31.64 9.0 Not Reported 2.91 SW 3.13 S 4.92 SW x x Other     x x x x x 29.84 Unknown
11/28/2020 02:13 AM 36.14 31.46 -15.34 67.10 31.64 9.0 Not Reported 3.13 SW 3.13 S 4.92 SW x x Other     x x x x x 29.84 Unknown
11/28/2020 02:14 AM 36.14 31.46 -15.34 67.10 31.64 9.0 Not Reported 3.36 S 4.92 SW 4.92 SW x x Other     x x x x x 29.84 Unknown
11/28/2020 02:15 AM 35.96 31.28 -15.52 67.10 31.64 9.0 Not Reported 3.58 SW 2.91 S 5.37 SW x x Other     x x x x x 29.84 Unknown
11/28/2020 02:16 AM 35.96 31.28 -15.52 67.10 31.64 9.0 Not Reported 3.58 SW 3.36 SW 5.37 SW x x Other     x x x x x 29.84 Unknown
11/28/2020 02:17 AM 35.96 31.28 -15.52 67.10 31.64 9.0 Not Reported 3.58 SW 4.25 SW 5.37 SW x x Other     x x x x x 29.84 Unknown
11/28/2020 02:18 AM 35.78 31.10 -15.52 67.10 31.64 9.0 Not Reported 3.58 SW 2.24 S 5.37 SW x x Other     x x x x x 29.84 Unknown
11/28/2020 02:19 AM 35.78 31.10 -15.52 67.10 31.64 9.0 Not Reported 3.13 SW 2.91 SW 5.37 SW x x Other     x x x x x 29.84 Unknown
11/28/2020 02:20 AM 35.78 31.10 -15.52 67.10 31.64 9.0 Not Reported 2.46 SW 1.34 SW 5.37 SW x x Other     x x x x x 29.84 Unknown
11/28/2020 02:21 AM 35.78 31.10 -15.52 67.10 31.64 9.0 Not Reported 2.24 SW 2.24 SW 5.37 SW x x Other     x x x x x 29.84 Unknown
11/28/2020 02:22 AM 35.78 31.10 -15.52 67.10 31.64 9.0 Not Reported 2.24 SW 2.68 SW 5.37 SW x x Other     x x x x x 29.84 Unknown
11/28/2020 02:23 AM 35.78 31.10 -15.52 67.10 31.64 9.0 Not Reported 1.79 SW 1.34 SW 5.37 SW x x Other     x x x x x 29.84 Unknown
11/28/2020 02:25 AM 35.60 30.92 -15.70 67.10 31.64 9.0 Not Reported 1.12 SW 0.00 SW 4.47 SW x x Other     x x x x x 29.84 Unknown
11/28/2020 02:26 AM 35.42 30.92 -15.88 67.10 31.64 9.0 Not Reported 1.34 SW 1.57 SW 4.47 SW x x Other     x x x x x 29.84 Unknown
11/28/2020 02:27 AM 35.24 30.74 -15.88 67.10 31.64 9.0 Not Reported 1.34 SW 1.57 W 3.36 S x x Other     x x x x x 29.84 Unknown
11/28/2020 02:28 AM 35.06 30.56 -16.06 67.10 31.64 9.0 Not Reported 1.57 W 2.46 SW 3.36 S x x Other     x x x x x 29.84 Unknown
11/28/2020 02:29 AM 34.88 30.38 -16.24 67.10 31.64 9.0 Not Reported 2.46 SW 3.80 W 3.80 W x x Other     x x x x x 29.84 Unknown
11/28/2020 02:30 AM 34.88 30.38 -16.24 67.10 31.64 9.0 Not Reported 3.36 SW 3.58 SW 4.03 SW x x Other     x x x x x 29.84 Unknown
11/28/2020 02:31 AM 34.88 30.38 -16.24 67.10 31.64 9.0 Not Reported 3.58 SW 3.36 W 4.03 W x x Other     x x x x x 29.84 Unknown
11/28/2020 02:32 AM 34.70 30.20 -16.42 67.10 31.64 9.0 Not Reported 3.36 W 2.91 W 4.03 W x x Other     x x x x x 29.84 Unknown
11/28/2020 02:33 AM 34.88 30.38 -16.24 67.10 31.64 9.0 Not Reported 3.13 W 2.91 W 4.03 W x x Other     x x x x x 29.84 Unknown
11/28/2020 02:34 AM 34.88 30.38 -16.24 67.10 31.64 9.0 Not Reported 2.91 W 2.91 SW 4.03 W x x Other     x x x x x 29.84 Unknown
11/28/2020 02:35 AM 34.88 30.56 -16.24 67.10 31.64 9.0 Not Reported 2.68 SW 2.46 SW 4.03 W x x Other     x x x x x 29.84 Unknown
11/28/2020 02:36 AM 35.06 30.56 -16.06 67.10 31.64 9.0 Not Reported 2.46 SW 2.91 SW 4.03 W x x Other     x x x x x 29.84 Unknown
11/28/2020 02:37 AM 35.24 30.74 -15.88 67.10 31.64 9.0 Not Reported 2.46 SW 2.46 SW 4.03 W x x Other     x x x x x 29.84 Unknown
11/28/2020 02:38 AM 35.42 30.92 -15.88 67.10 31.64 9.0 Not Reported 2.68 SW 1.79 SW 4.03 W x x Other     x x x x x 29.84 Unknown
11/28/2020 02:39 AM 35.60 30.92 -15.70 67.10 31.64 9.0 Not Reported 2.46 SW 2.24 SW 4.03 W x x Other     x x x x x 29.84 Unknown
11/28/2020 02:40 AM 35.78 31.10 -15.52 67.10 31.64 9.0 Not Reported 2.46 SW 2.91 SW 3.58 W x x Other     x x x x x 29.84 Unknown
11/28/2020 02:41 AM 35.78 31.10 -15.52 67.10 31.64 9.0 Not Reported 2.68 SW 3.36 SW 3.58 SW x x Other     x x x x x 29.84 Unknown
11/28/2020 02:42 AM 35.96 31.28 -15.52 67.10 31.64 9.0 Not Reported 2.68 SW 3.36 SW 3.58 SW x x Other     x x x x x 29.84 Unknown
11/28/2020 02:43 AM 35.96 31.28 -15.52 67.10 31.64 9.0 Not Reported 2.91 SW 3.13 SW 3.58 SW x x Other     x x x x x 29.84 Unknown
11/28/2020 02:44 AM 35.96 31.28 -15.52 67.10 31.64 9.0 Not Reported 3.13 SW 3.13 SW 4.47 S x x Other     x x x x x 29.84 Unknown
11/28/2020 02:45 AM 35.78 31.28 -15.52 67.10 31.64 9.0 Not Reported 3.13 SW 2.01 SW 4.47 S x x Other     x x x x x 29.84 Unknown
11/28/2020 02:46 AM 35.96 31.10 -15.52 67.10 31.64 9.0 Not Reported 2.68 SW 1.57 SW 4.47 S x x Other     x x x x x 29.84 Unknown
11/28/2020 02:47 AM 35.96 31.28 -15.52 67.10 31.64 9.0 Not Reported 2.01 W 2.46 SW 4.47 S x x Other     x x x x x 29.84 Unknown
11/28/2020 02:48 AM 36.14 31.46 -15.34 67.10 31.64 9.0 Not Reported 2.24 W 2.68 SW 4.47 S x x Other     x x x x x 29.84 Unknown
11/28/2020 02:49 AM 36.14 31.46 -15.34 67.10 31.64 9.0 Not Reported 2.24 SW 2.68 SW 4.47 S x x Other     x x x x x 29.84 Unknown
11/28/2020 02:50 AM 36.14 31.46 -15.34 67.10 31.64 9.0 Not Reported 2.01 SW 2.01 SW 4.47 S x x Other     x x x x x 29.84 Unknown
11/28/2020 02:51 AM 36.14 31.46 -15.34 67.10 31.64 9.0 Not Reported 2.01 SW 2.01 SW 4.47 S x x Other     x x x x x 29.84 Unknown
11/28/2020 02:52 AM 36.14 31.46 -15.16 67.10 31.64 9.0 Not Reported 2.01 SW 1.57 SW 4.47 S x x Other     x x x x x 29.84 Unknown
11/28/2020 02:53 AM 36.32 31.64 -15.16 67.10 31.64 9.0 Not Reported 1.57 SW 1.12 W 3.13 SW x x Other     x x x x x 29.84 Unknown
11/28/2020 02:54 AM 36.32 31.64 -15.16 67.10 31.64 9.0 Not Reported 1.34 SW 0.89 SW 2.68 W x x Other     x x x x x 29.84 Unknown
11/28/2020 02:55 AM 36.68 31.82 -14.80 67.10 31.64 9.0 Not Reported 0.89 SW 1.12 SW 2.68 SW x x Other     x x x x x 29.84 Unknown
11/28/2020 02:56 AM 36.68 31.82 -14.80 67.10 31.64 9.0 Not Reported 1.12 SW 1.12 SW 2.68 SW x x Other     x x x x x 29.84 Unknown
11/28/2020 02:57 AM 36.68 31.82 -14.80 67.10 31.64 9.0 Not Reported 1.34 SW 1.57 SW 2.68 SW x x Other     x x x x x 29.84 Unknown
11/28/2020 02:58 AM 36.68 31.82 -14.80 67.10 31.64 9.0 Not Reported 1.57 SW 1.57 SW 2.68 W x x Other     x x x x x 29.84 Unknown
11/28/2020 02:59 AM 36.68 31.82 -14.98 67.10 31.64 9.0 Not Reported 1.79 SW 2.24 SW 2.68 W x x Other     x x x x x 29.84 Unknown
11/28/2020 03:00 AM 36.32 31.64 -15.16 67.10 31.64 9.0 Not Reported 2.24 SW 2.01 SW 2.68 W x x Other     x x x x x 29.84 Unknown
11/28/2020 03:01 AM 36.14 31.46 -15.34 67.10 31.64 9.0 Not Reported 2.24 SW 2.01 SW 2.68 SW x x Other     x x x x x 29.84 Unknown
11/28/2020 03:02 AM 35.96 31.28 -15.52 67.10 31.64 9.0 Not Reported 2.46 SW 2.24 SW 2.68 SW x x Other     x x x x x 29.84 Unknown
11/28/2020 03:03 AM 35.60 30.92 -15.70 67.10 31.64 9.0 Not Reported 2.24 SW 2.68 SW 2.91 SW x x Other     x x x x x 29.84 Unknown
11/28/2020 03:04 AM 35.42 30.92 -15.88 67.10 31.64 9.0 Not Reported 2.68 SW 3.58 SW 3.80 SW x x Other     x x x x x 29.84 Unknown
11/28/2020 03:05 AM 35.24 30.74 -15.88 67.10 31.64 9.0 Not Reported 3.13 SW 3.13 SW 3.80 SW x x Other     x x x x x 29.84 Unknown
11/28/2020 03:06 AM 35.06 30.56 -16.06 67.10 31.64 9.0 Not Reported 3.13 SW 2.91 SW 3.80 SW x x Other     x x x x x 29.84 Unknown
11/28/2020 03:07 AM 34.88 30.38 -16.24 67.10 31.64 9.0 Not Reported 2.91 SW 3.58 SW 3.80 SW x x Other     x x x x x 29.84 Unknown
11/28/2020 03:08 AM 34.88 30.38 -16.24 67.10 31.64 9.0 Not Reported 2.91 SW 2.68 S 3.80 SW x x Other     x x x x x 29.84 Unknown
11/28/2020 03:09 AM 34.70 30.20 -16.42 67.10 31.64 9.0 Not Reported 3.36 SW 3.80 SW 3.80 SW x x Other     x x x x x 29.84 Unknown
11/28/2020 03:10 AM 34.52 30.02 -16.60 67.10 31.64 9.0 Not Reported 3.58 SW 3.58 SW 4.25 SW x x Other     x x x x x 29.84 Unknown
11/28/2020 03:11 AM 34.34 30.02 -16.60 67.10 31.64 9.0 Not Reported 3.58 SW 3.58 SW 4.25 SW x x Other     x x x x x 29.84 Unknown
11/28/2020 03:12 AM 34.34 30.02 -16.60 67.10 31.64 9.0 Not Reported 3.58 SW 3.80 SW 4.25 SW x x Other     x x x x x 29.84 Unknown
11/28/2020 03:13 AM 34.16 29.84 -16.78 67.10 31.64 9.0 Not Reported 3.80 SW 4.03 S 4.70 SW x x Other     x x x x x 29.84 Unknown
11/28/2020 03:14 AM 34.16 29.84 -16.78 67.10 31.64 9.0 Not Reported 3.80 S 3.58 S 4.70 SW x x Other     x x x x x 29.84 Unknown
11/28/2020 03:15 AM 33.98 29.66 -16.96 67.10 31.64 9.0 Not Reported 3.36 S 3.13 S 4.70 SW x x Other     x x x x x 29.84 Unknown
11/28/2020 03:16 AM 33.98 29.66 -16.96 67.10 31.64 9.0 Not Reported 2.91 S 2.68 SW 4.70 SW x x Other     x x x x x 29.84 Unknown
11/28/2020 03:17 AM 33.80 29.48 -17.14 67.10 31.64 9.0 Not Reported 2.68 SW 2.91 SW 4.70 SW x x Other     x x x x x 29.84 Unknown
11/28/2020 03:18 AM 33.80 29.48 -17.14 67.10 31.64 9.0 Not Reported 3.13 SW 3.58 SW 4.70 SW x x Other     x x x x x 29.84 Unknown
11/28/2020 03:19 AM 33.80 29.48 -17.14 67.10 31.64 9.0 Not Reported 3.36 SW 3.58 SW 4.70 SW x x Other     x x x x x 29.84 Unknown
11/28/2020 03:20 AM 33.80 29.48 -17.14 67.10 31.64 9.0 Not Reported 3.36 SW 2.01 SW 4.70 SW x x Other     x x x x x x Unknown
11/28/2020 03:21 AM 33.80 29.48 -17.14 67.10 31.64 9.0 Not Reported 3.13 SW 2.91 SW 4.70 SW x x Other     x x x x x 29.84 Unknown
11/28/2020 03:22 AM 33.80 29.48 -17.14 67.10 31.64 9.0 Not Reported 2.91 SW 2.91 S 4.25 S x x Other     x x x x x 29.84 Unknown
11/28/2020 03:23 AM 33.80 29.48 -17.14 67.10 31.64 9.0 Not Reported 2.68 SW 2.68 SW 4.03 S x x Other     x x x x x 29.84 Unknown
11/28/2020 03:24 AM 33.80 29.48 -17.14 67.10 31.64 9.0 Not Reported 2.46 SW 1.34 SW 4.03 S x x Other     x x x x x 29.84 Unknown
11/28/2020 03:25 AM 33.80 29.48 -17.14 67.10 31.64 9.0 Not Reported 2.46 SW 3.58 SW 4.03 S x x Other     x x x x x 29.84 Unknown
11/28/2020 03:26 AM 33.80 29.48 -17.14 67.10 31.64 9.0 Not Reported 2.91 SW 1.79 SW 4.03 SW x x Other     x x x x x 29.84 Unknown
11/28/2020 03:27 AM 33.80 29.48 -17.14 67.10 31.64 9.0 Not Reported 3.13 SW 3.36 SW 4.03 SW x x Other     x x x x x 29.84 Unknown
11/28/2020 03:28 AM 33.80 29.48 -17.14 67.10 31.64 9.0 Not Reported 3.13 SW 2.46 S 4.03 SW x x Other     x x x x x 29.84 Unknown
11/28/2020 03:29 AM 33.62 29.30 -17.14 67.10 31.64 9.0 Not Reported 3.13 SW 3.36 SW 4.03 SW x x Other     x x x x x 29.84 Unknown
11/28/2020 03:30 AM 33.62 29.30 -17.32 67.10 31.64 9.0 Not Reported 2.91 SW 2.68 SW 4.03 SW x x Other     x x x x x 29.84 Unknown
11/28/2020 03:31 AM 33.62 29.30 -17.32 67.10 31.64 9.0 Not Reported 2.91 SW 3.36 SW 4.03 SW x x Other     x x x x x 29.84 Unknown
11/28/2020 03:32 AM 33.44 29.30 -17.32 67.10 31.64 9.0 Not Reported 2.91 SW 2.68 SW 4.03 SW x x Other     x x x x x 29.84 Unknown
11/28/2020 03:33 AM 33.62 29.30 -17.32 67.10 31.64 9.0 Not Reported 2.91 SW 2.68 SW 4.03 SW x x Other     x x x x x 29.84 Unknown
11/28/2020 03:34 AM 33.62 29.30 -17.32 67.10 31.64 9.0 Not Reported 2.68 SW 2.01 SW 4.03 SW x x Other     x x x x x 29.84 Unknown
11/28/2020 03:35 AM 33.62 29.30 -17.32 67.10 31.64 9.0 Not Reported 2.01 SW 2.01 S 4.03 SW x x Other     x x x x x 29.84 Unknown
11/28/2020 03:36 AM 33.80 29.48 -17.14 67.10 31.64 9.0 Not Reported 2.01 SW 2.46 SW 3.80 SW x x Other     x x x x x 29.84 Unknown
11/28/2020 03:37 AM 33.80 29.48 -17.14 67.10 31.64 9.0 Not Reported 2.68 SW 3.80 SW 3.80 SW x x Other     x x x x x 29.84 Unknown
11/28/2020 03:38 AM 33.80 29.48 -17.14 67.10 31.64 9.0 Not Reported 2.91 S 3.80 SW 4.03 SW x x Other     x x x x x 29.84 Unknown
11/28/2020 03:39 AM 33.80 29.48 -17.14 67.10 31.64 9.0 Not Reported 3.36 SW 3.13 SW 4.03 SW x x Other     x x x x x 29.84 Unknown
11/28/2020 03:40 AM 33.80 29.48 -17.14 67.10 31.64 9.0 Not Reported 3.13 S 3.13 S 4.03 SW x x Other     x x x x x 29.84 Unknown
11/28/2020 03:41 AM 33.80 29.48 -17.14 67.10 31.64 9.0 Not Reported 2.91 S 3.58 SW 4.03 SW x x Other     x x x x x 29.84 Unknown
11/28/2020 03:42 AM 33.80 29.48 -17.14 67.10 31.64 9.0 Not Reported 2.91 S 4.03 S 4.03 SW x x Other     x x x x x 29.84 Unknown
11/28/2020 03:43 AM 33.80 29.48 -17.14 67.10 31.64 9.0 Not Reported 3.13 S 2.91 S 4.25 S x x Other     x x x x x 29.84 Unknown
11/28/2020 03:44 AM 33.80 29.48 -17.14 67.10 31.64 9.0 Not Reported 2.91 S 3.13 S 4.25 S x x Other     x x x x x 29.84 Unknown
11/28/2020 03:45 AM 33.80 29.48 -17.14 67.10 31.64 9.0 Not Reported 3.13 S 2.68 S 4.25 S x x Other     x x x x x 29.84 Unknown
11/28/2020 03:46 AM 33.80 29.48 -17.14 67.10 31.64 9.0 Not Reported 3.36 S 2.46 SW 4.25 SW x x Other     x x x x x 29.84 Unknown
11/28/2020 03:47 AM 33.98 29.48 -16.96 67.10 31.64 9.0 Not Reported 3.13 SW 3.80 S 4.25 SW x x Other     x x x x x 29.84 Unknown
11/28/2020 03:48 AM 33.80 29.48 -17.14 67.10 31.64 9.0 Not Reported 3.13 S 2.91 SW 4.25 SW x x Other     x x x x x 29.84 Unknown
11/28/2020 03:49 AM 33.80 29.48 -17.14 67.10 31.64 9.0 Not Reported 3.36 S 2.68 SW 4.25 SW x x Other     x x x x x 29.84 Unknown
11/28/2020 03:50 AM 33.80 29.48 -17.14 67.10 31.64 9.0 Not Reported 3.13 SW 2.68 S 4.47 SW x x Other     x x x x x 29.84 Unknown
11/28/2020 03:51 AM 33.80 29.48 -17.14 67.10 31.64 9.0 Not Reported 3.36 SW 4.03 S 4.92 SW x x Other     x x x x x 29.84 Unknown
11/28/2020 03:52 AM 33.98 29.66 -16.96 67.10 31.64 9.0 Not Reported 3.80 S 2.91 SW 4.92 SW x x Other     x x x x x 29.84 Unknown
11/28/2020 03:53 AM 33.98 29.66 -16.96 67.10 31.64 9.0 Not Reported 3.58 S 3.36 S 4.92 SW x x Other     x x x x x 29.84 Unknown
11/28/2020 03:54 AM 34.16 29.84 -16.78 67.10 31.64 9.0 Not Reported 3.58 S 3.36 S 5.14 S x x Other     x x x x x 29.84 Unknown
11/28/2020 03:55 AM 34.34 30.02 -16.60 67.10 31.64 9.0 Not Reported 3.80 S 4.92 S 5.14 S x x Other     x x x x x 29.84 Unknown
11/28/2020 03:56 AM 34.34 30.02 -16.60 67.10 31.64 9.0 Not Reported 4.25 S 6.26 S 6.49 SW x x Other     x x x x x 29.84 Unknown
11/28/2020 03:57 AM 34.70 30.20 -16.42 67.10 31.64 9.0 Not Reported 4.92 S 6.26 SW 7.16 S x x Other     x x x x x 29.84 Unknown
11/28/2020 03:58 AM 34.88 30.38 -16.24 67.10 31.64 9.0 Not Reported 5.59 SW 7.16 SW 7.83 SW x x Other     x x x x x 29.84 Unknown
11/28/2020 03:59 AM 34.88 30.38 -16.24 67.10 31.64 9.0 Not Reported 5.82 SW 6.71 SW 7.83 SW x x Other     x x x x x 29.84 Unknown
11/28/2020 04:00 AM 35.24 30.74 -15.88 67.10 31.64 9.0 Not Reported 5.59 SW 6.49 SW 7.83 SW x x Other     x x x x x 29.84 Unknown
11/28/2020 04:01 AM 35.78 31.10 -15.70 67.10 31.64 9.0 Not Reported 6.04 SW 6.71 SW 7.83 SW x x Other     x x x x x 29.84 Unknown
11/28/2020 04:02 AM 36.14 31.46 -15.34 67.10 31.64 9.0 Not Reported 6.71 SW 6.71 SW 8.95 SW x x Other     x x x x x 29.84 Unknown
11/28/2020 04:03 AM 36.50 31.82 -14.98 67.10 31.64 9.0 Not Reported 6.71 SW 5.37 SW 8.95 SW x x Other     x x x x x 29.84 Unknown
11/28/2020 04:04 AM 36.68 31.82 -14.80 67.10 31.64 9.0 Not Reported 6.49 SW 7.16 SW 8.95 SW x x Other     x x x x x 29.84 Unknown
11/28/2020 04:05 AM 37.04 32.18 -14.62 67.10 31.64 9.0 Not Reported 6.93 SW 6.93 SW 8.95 SW x x Other     x x x x x 29.84 Unknown
11/28/2020 04:06 AM 37.22 32.36 -14.44 67.10 31.64 9.0 Not Reported 7.38 SW 7.83 SW 8.95 SW x x Other     x x x x x 29.84 Unknown
11/28/2020 04:07 AM 37.40 32.54 -14.26 67.10 31.64 9.0 Not Reported 7.16 SW 7.61 SW 8.95 SW x x Other     x x x x x 29.84 Unknown
11/28/2020 04:08 AM 37.40 32.72 -14.26 67.10 31.64 9.0 Not Reported 6.49 SW 5.59 S 8.95 SW x x Other     x x x x x 29.84 Unknown
11/28/2020 04:09 AM 37.76 32.72 -14.08 67.10 31.64 9.0 Not Reported 5.82 SW 5.14 SW 8.95 SW x x Other     x x x x x 29.84 Unknown
11/28/2020 04:10 AM 37.76 32.72 -13.90 67.10 31.64 9.0 Not Reported 5.82 SW 4.47 SW 8.95 SW x x Other     x x x x x 29.84 Unknown
11/28/2020 04:11 AM 37.94 32.90 -13.90 67.10 31.64 9.0 Not Reported 6.04 SW 4.70 SW 8.50 SW x x Other     x x x x x 29.84 Unknown
11/28/2020 04:12 AM 38.12 33.08 -13.72 67.10 31.64 9.0 Not Reported 5.82 SW 6.04 SW 8.50 SW x x Other     x x x x x 29.84 Unknown
11/28/2020 04:13 AM 37.94 32.90 -13.90 67.10 31.64 9.0 Not Reported 5.82 SW 7.16 S 8.50 S x x Other     x x x x x 29.84 Unknown
11/28/2020 04:14 AM 37.94 32.90 -13.90 67.10 31.64 9.0 Not Reported 6.26 SW 7.38 SW 8.50 S x x Other     x x x x x 29.84 Unknown
11/28/2020 04:15 AM 37.94 32.90 -13.90 67.10 31.64 9.0 Not Reported 6.26 SW 6.04 S 8.28 SW x x Other     x x x x x 29.84 Unknown
11/28/2020 04:16 AM 38.12 33.08 -13.72 67.10 31.64 9.0 Not Reported 6.04 SW 5.59 SW 8.28 SW x x Other     x x x x x 29.84 Unknown
11/28/2020 04:17 AM 37.94 32.90 -13.90 67.10 31.64 9.0 Not Reported 5.82 SW 5.59 S 8.28 SW x x Other     x x x x x 29.84 Unknown
11/28/2020 04:18 AM 37.94 32.90 -13.90 67.10 31.64 9.0 Not Reported 6.04 SW 5.82 SW 8.28 SW x x Other     x x x x x 29.84 Unknown
11/28/2020 04:19 AM 37.76 32.72 -13.90 67.10 31.64 9.0 Not Reported 6.04 SW 7.38 SW 8.05 SW x x Other     x x x x x 29.84 Unknown
11/28/2020 04:20 AM 37.76 32.72 -14.08 67.10 31.64 9.0 Not Reported 6.26 SW 6.71 SW 8.05 SW x x Other     x x x x x 29.84 Unknown
11/28/2020 04:21 AM 37.58 32.72 -14.08 67.10 31.64 9.0 Not Reported 5.59 SW 4.70 SW 8.05 SW x x Other     x x x x x 29.84 Unknown
11/28/2020 04:22 AM 37.58 32.72 -14.08 67.10 31.64 9.0 Not Reported 5.37 S 6.49 SW 8.05 SW x x Other     x x x x x 29.84 Unknown
11/28/2020 04:23 AM 37.58 32.72 -14.08 67.10 31.64 9.0 Not Reported 5.82 SW 4.03 SW 8.05 SW x x Other     x x x x x 29.84 Unknown
11/28/2020 04:24 AM 37.58 32.72 -14.08 67.10 31.64 9.0 Not Reported 5.82 S 6.93 S 8.05 SW x x Other     x x x x x 29.84 Unknown
11/28/2020 04:26 AM 37.58 32.72 -14.08 67.10 31.64 9.0 Not Reported 4.92 S 4.47 SW 8.05 SW x x Other     x x x x x 29.84 Unknown
11/28/2020 04:28 AM 37.58 32.54 -14.08 67.10 31.64 9.0 Not Reported 4.47 SW 5.37 SW 7.83 SW x x Other     x x x x x 29.84 Unknown
11/28/2020 04:29 AM 37.40 32.54 -14.26 67.10 31.64 9.0 Not Reported 4.47 SW 4.92 S 7.83 S x x Other     x x x x x 29.84 Unknown
11/28/2020 04:30 AM 37.40 32.54 -14.26 67.10 31.64 9.0 Not Reported 4.47 SW 4.03 S 7.83 S x x Other     x x x x x 29.84 Unknown
11/28/2020 04:31 AM 37.40 32.54 -14.26 67.10 31.64 9.0 Not Reported 4.03 S 3.58 S 7.83 S x x Other     x x x x x 29.84 Unknown
11/28/2020 04:32 AM 37.40 32.36 -14.44 67.10 31.64 9.0 Not Reported 3.58 S 3.13 S 7.38 SW x x Other     x x x x x 29.84 Unknown
11/28/2020 04:33 AM 37.40 32.36 -14.44 67.10 31.64 9.0 Not Reported 3.58 S 4.03 S 7.38 SW x x Other     x x x x x 29.84 Unknown
11/28/2020 04:34 AM 37.22 32.36 -14.44 67.10 31.64 9.0 Not Reported 3.80 S 3.36 S 6.49 SW x x Other     x x x x x 29.84 Unknown
11/28/2020 04:35 AM 37.22 32.36 -14.44 67.10 31.64 9.0 Not Reported 3.58 SW 2.01 SW 6.04 SW x x Other     x x x x x 29.84 Unknown
11/28/2020 04:36 AM 37.04 32.18 -14.62 67.10 31.64 9.0 Not Reported 3.13 SW 2.91 SW 6.04 S x x Other     x x x x x 29.84 Unknown
11/28/2020 04:37 AM 36.86 32.00 -14.80 67.10 31.64 9.0 Not Reported 3.36 S 5.14 SW 6.04 S x x Other     x x x x x 29.84 Unknown
11/28/2020 04:38 AM 36.86 32.00 -14.80 67.10 31.64 9.0 Not Reported 4.03 SW 4.03 S 6.04 S x x Other     x x x x x 29.84 Unknown
11/28/2020 04:39 AM 36.68 31.82 -14.80 67.10 31.64 9.0 Not Reported 4.47 SW 3.13 SW 5.59 SW x x Other     x x x x x 29.84 Unknown
11/28/2020 04:40 AM 36.68 31.82 -14.98 67.10 31.64 9.0 Not Reported 3.80 SW 3.58 S 5.59 SW x x Other     x x x x x 29.84 Unknown
11/28/2020 04:42 AM 36.50 31.82 -14.98 67.10 31.64 9.0 Not Reported 3.36 S 4.25 S 5.59 SW x x Other     x x x x x 29.84 Unknown
11/28/2020 04:43 AM 36.50 31.82 -14.98 67.10 31.64 9.0 Not Reported 3.80 S 4.03 SW 5.59 SW x x Other     x x x x x 29.84 Unknown
11/28/2020 04:44 AM 36.50 31.64 -14.98 67.10 31.64 9.0 Not Reported 3.80 SW 4.70 S 5.59 SW x x Other     x x x x x 29.84 Unknown
11/28/2020 04:45 AM 36.32 31.64 -15.16 67.10 31.64 9.0 Not Reported 3.58 SW 3.58 S 5.59 SW x x Other     x x x x x 29.84 Unknown
11/28/2020 04:46 AM 36.32 31.64 -15.16 67.10 31.64 9.0 Not Reported 3.36 S 2.91 S 5.59 SW x x Other     x x x x x 29.84 Unknown
11/28/2020 04:47 AM 36.14 31.46 -15.16 67.10 31.64 9.0 Not Reported 3.36 S 4.03 S 5.59 SW x x Other     x x x x x 29.84 Unknown
11/28/2020 04:48 AM 36.14 31.46 -15.16 67.10 31.64 9.0 Not Reported 3.58 S 3.36 SW 5.59 S x x Other     x x x x x 29.84 Unknown
11/28/2020 04:50 AM 36.14 31.46 -15.34 67.10 31.64 9.0 Not Reported 2.24 SW 2.68 SW 5.59 S x x Other     x x x x x 29.84 Unknown
11/28/2020 04:52 AM 35.96 31.28 -15.34 67.10 31.64 9.0 Not Reported 2.24 SW 1.79 SW 4.92 SW x x Other     x x x x x 29.84 Unknown
11/28/2020 04:53 AM 35.78 31.28 -15.52 67.10 31.64 9.0 Not Reported 2.24 SW 0.89 SW 4.92 SW x x Other     x x x x x 29.84 Unknown
11/28/2020 04:54 AM 35.78 31.10 -15.70 67.10 31.64 9.0 Not Reported 2.01 S 1.12 SW 4.92 SW x x Other     x x x x x 29.84 Unknown
11/28/2020 04:55 AM 35.60 30.92 -15.70 67.10 31.64 9.0 Not Reported 1.57 SW 2.91 SW 4.92 SW x x Other     x x x x x 29.84 Unknown
11/28/2020 04:56 AM 35.42 30.74 -15.88 67.10 31.64 9.0 Not Reported 2.24 SW 2.46 SW 4.92 SW x x Other     x x x x x 29.84 Unknown
11/28/2020 04:57 AM 35.24 30.74 -15.88 67.10 31.64 9.0 Not Reported 2.68 SW 3.36 SW 4.70 SW x x Other     x x x x x 29.84 Unknown
11/28/2020 04:58 AM 35.06 30.56 -16.06 67.10 31.64 9.0 Not Reported 2.46 SW 2.24 SW 3.58 S x x Other     x x x x x 29.84 Unknown
11/28/2020 04:59 AM 34.88 30.38 -16.24 67.10 31.64 9.0 Not Reported 2.01 SW 1.79 W 3.58 S x x Other     x x x x x 29.84 Unknown
11/28/2020 05:00 AM 34.70 30.20 -16.42 67.10 31.64 9.0 Not Reported 1.79 SW 2.24 W 3.58 S x x Other     x x x x x 29.84 Unknown
11/28/2020 05:01 AM 34.52 30.02 -16.60 67.10 31.64 9.0 Not Reported 1.79 W 0.89 W 3.58 S x x Other     x x x x x 29.84 Unknown
11/28/2020 05:02 AM 34.16 29.84 -16.78 67.10 31.64 9.0 Not Reported 1.57 W 1.79 W 3.58 SW x x Other     x x x x x 29.84 Unknown
11/28/2020 05:03 AM 33.98 29.66 -16.96 67.10 31.64 9.0 Not Reported 2.24 SW 3.36 SW 3.58 SW x x Other     x x x x x 29.84 Unknown
11/28/2020 05:04 AM 33.80 29.48 -17.14 67.10 31.64 9.0 Not Reported 2.46 SW 3.13 SW 3.58 SW x x Other     x x x x x 29.84 Unknown
11/28/2020 05:05 AM 33.80 29.48 -17.14 67.10 31.64 9.0 Not Reported 2.46 SW 3.36 SW 4.92 SW x x Other     x x x x x 29.84 Unknown
11/28/2020 05:06 AM 33.80 29.48 -17.14 67.10 31.64 9.0 Not Reported 3.36 SW 4.25 SW 4.92 SW x x Other     x x x x x 29.84 Unknown
11/28/2020 05:07 AM 33.80 29.48 -17.14 67.10 31.64 9.0 Not Reported 3.80 SW 3.58 SW 4.92 SW x x Other     x x x x x 29.84 Unknown
11/28/2020 05:08 AM 33.80 29.48 -17.14 67.10 31.64 9.0 Not Reported 3.58 SW 3.80 SW 4.92 SW x x Other     x x x x x 29.84 Unknown
11/28/2020 05:09 AM 33.80 29.48 -17.14 67.10 31.64 9.0 Not Reported 3.13 SW 3.13 SW 4.92 SW x x Other     x x x x x 29.84 Unknown
11/28/2020 05:10 AM 33.98 29.66 -16.96 67.10 31.64 9.0 Not Reported 2.91 SW 2.68 SW 4.92 SW x x Other     x x x x x 29.84 Unknown
11/28/2020 05:11 AM 33.98 29.66 -16.96 67.10 31.64 9.0 Not Reported 2.46 SW 2.24 SW 4.92 SW x x Other     x x x x x 29.84 Unknown
11/28/2020 05:12 AM 33.98 29.66 -16.96 67.10 31.64 9.0 Not Reported 2.46 SW 2.68 SW 4.92 SW x x Other     x x x x x 29.84 Unknown
11/28/2020 05:13 AM 33.98 29.66 -16.96 67.10 31.64 9.0 Not Reported 2.68 SW 2.01 W 4.92 SW x x Other     x x x x x 29.84 Unknown
11/28/2020 05:14 AM 33.98 29.66 -16.96 67.10 31.64 9.0 Not Reported 2.68 SW 3.13 SW 4.92 SW x x Other     x x x x x 29.84 Unknown
11/28/2020 05:15 AM 33.98 29.66 -16.96 67.10 31.64 9.0 Not Reported 2.91 SW 2.91 SW 4.47 SW x x Other     x x x x x 29.84 Unknown
11/28/2020 05:16 AM 33.80 29.48 -17.14 67.10 31.64 9.0 Not Reported 2.91 SW 2.01 SW 4.03 SW x x Other     x x x x x 29.84 Unknown
11/28/2020 05:17 AM 33.80 29.48 -17.14 67.10 31.64 9.0 Not Reported 2.46 SW 2.24 SW 3.80 SW x x Other     x x x x x 29.84 Unknown
11/28/2020 05:18 AM 33.80 29.48 -17.14 67.10 31.64 9.0 Not Reported 1.79 SW 1.57 SW 3.58 SW x x Other     x x x x x 29.84 Unknown
11/28/2020 05:19 AM 33.80 29.48 -17.14 67.10 31.64 9.0 Not Reported 1.12 SW 1.34 W 3.36 SW x x Other     x x x x x 29.84 Unknown
11/28/2020 05:20 AM 33.98 29.66 -16.96 67.10 31.64 9.0 Not Reported 1.12 SW 1.57 W 3.36 SW x x Other     x x x x x 29.84 Unknown
11/28/2020 05:21 AM 33.98 29.66 -16.96 67.10 31.64 9.0 Not Reported 1.57 W 1.34 SW 3.36 SW x x Other     x x x x x 29.84 Unknown
11/28/2020 05:22 AM 33.98 29.66 -16.96 67.10 31.64 9.0 Not Reported 1.57 W 1.12 W 3.36 SW x x Other     x x x x x 29.84 Unknown
11/28/2020 05:23 AM 34.16 29.66 -16.78 67.10 31.64 9.0 Not Reported 1.57 SW 1.79 SW 3.36 SW x x Other     x x x x x 29.84 Unknown
11/28/2020 05:24 AM 34.16 29.84 -16.78 67.10 31.64 9.0 Not Reported 1.57 W 1.57 SW 3.13 SW x x Other     x x x x x 29.84 Unknown
11/28/2020 05:25 AM 34.34 30.02 -16.60 67.10 31.64 9.0 Not Reported 1.79 SW 2.24 SW 2.91 S x x Other     x x x x x 29.84 Unknown
11/28/2020 05:26 AM 34.52 30.02 -16.60 67.10 31.64 9.0 Not Reported 2.24 SW 2.68 SW 2.91 S x x Other     x x x x x 29.84 Unknown
11/28/2020 05:27 AM 34.52 30.02 -16.60 67.10 31.64 9.0 Not Reported 2.68 SW 1.57 SE 3.80 SW x x Other     x x x x x 29.84 Unknown
11/28/2020 05:28 AM 34.52 30.02 -16.60 67.10 31.64 9.0 Not Reported 2.68 SW 3.13 SW 3.80 SW x x Other     x x x x x 29.84 Unknown
11/28/2020 05:29 AM 34.52 30.20 -16.42 67.10 31.64 9.0 Not Reported 2.24 SW 1.79 SW 3.80 SW x x Other     x x x x x 29.84 Unknown
11/28/2020 05:30 AM 34.70 30.20 -16.42 67.10 31.64 9.0 Not Reported 2.24 SW 2.46 W 3.80 SW x x Other     x x x x x 29.84 Unknown
11/28/2020 05:31 AM 34.52 30.02 -16.42 67.10 31.64 9.0 Not Reported 2.24 SW 1.79 W 3.80 SW x x Other     x x x x x 29.84 Unknown
11/28/2020 05:32 AM 34.52 30.02 -16.60 67.10 31.64 9.0 Not Reported 2.24 SW 2.46 W 3.80 SW x x Other     x x x x x 29.84 Unknown
11/28/2020 05:33 AM 34.34 30.02 -16.60 67.10 31.64 9.0 Not Reported 2.46 W 2.91 SW 3.80 SW x x Other     x x x x x 29.84 Unknown
11/28/2020 05:34 AM 34.52 30.02 -16.60 67.10 31.64 9.0 Not Reported 2.68 SW 2.24 SW 3.80 SW x x Other     x x x x x 29.84 Unknown
11/28/2020 05:35 AM 34.70 30.20 -16.42 67.10 31.64 9.0 Not Reported 2.46 SW 2.24 SW 3.80 SW x x Other     x x x x x 29.84 Unknown
11/28/2020 05:36 AM 34.88 30.38 -16.24 67.10 31.64 9.0 Not Reported 2.01 SW 1.12 SW 3.13 SW x x Other     x x x x x 29.84 Unknown
11/28/2020 05:37 AM 34.88 30.38 -16.24 67.10 31.64 9.0 Not Reported 1.34 SW 0.67 W 3.13 SW x x Other     x x x x x 29.84 Unknown
11/28/2020 05:38 AM 35.06 30.56 -16.06 67.10 31.64 9.0 Not Reported 0.89 SW 0.89 SW 2.91 W x x Other     x x x x x 29.84 Unknown
11/28/2020 05:39 AM 35.24 30.74 -16.06 67.10 31.64 9.0 Not Reported 0.89 SW 1.12 SW 2.91 W x x Other     x x x x x 29.84 Unknown
11/28/2020 05:40 AM 35.42 30.92 -15.88 67.10 32.54 9.0 Not Reported 0.89 SW 1.12 SE 2.91 W x x Other     x x x x x 29.84 Unknown
11/28/2020 05:41 AM 35.60 30.92 -15.70 67.10 32.54 9.0 Not Reported 1.12 S 1.12 S 2.91 W x x Other     x x x x x 29.84 Unknown
11/28/2020 05:42 AM 35.60 30.92 -15.70 67.10 32.54 9.0 Not Reported 0.89 S 0.89 SW 2.91 W x x Other     x x x x x 29.84 Unknown
11/28/2020 05:43 AM 35.78 31.10 -15.52 67.10 32.54 9.0 Not Reported 0.67 SW 0.00 S 2.68 SW x x Other     x x x x x 29.84 Unknown
11/28/2020 05:44 AM 35.78 31.28 -15.52 67.10 32.54 9.0 Not Reported 0.67 S 2.01 S 2.24 SW x x Other     x x x x x 29.84 Unknown
11/28/2020 05:45 AM 36.14 31.46 -15.34 67.10 32.54 9.0 Not Reported 1.57 S 1.12 S 2.68 S x x Other     x x x x x 29.84 Unknown
11/28/2020 05:46 AM 36.14 31.46 -15.16 67.10 32.54 9.0 Not Reported 1.57 S 0.89 S 2.68 S x x Other     x x x x x 29.84 Unknown
11/28/2020 05:47 AM 36.32 31.64 -15.16 67.10 32.54 9.0 Not Reported 1.12 SW 0.67 SW 2.68 S x x Other     x x x x x 29.84 Unknown
11/28/2020 05:49 AM 36.32 31.64 -15.16 67.10 32.54 9.0 Not Reported 0.00 SW 0.00 SW 2.68 S x x Other     x x x x x 29.84 Unknown
11/28/2020 05:50 AM 36.14 31.46 -15.16 67.10 32.54 9.0 Not Reported 0.00 SW 0.00 SW 2.68 S x x Other     x x x x x 29.84 Unknown
11/28/2020 05:51 AM 36.14 31.46 -15.16 67.10 32.54 9.0 Not Reported 0.00 SW 0.00 SW 2.68 S x x Other     x x x x x 29.84 Unknown
11/28/2020 05:53 AM 36.14 31.46 -15.34 67.10 32.54 9.0 Not Reported 0.00 SW 0.00 SW 2.68 S x x Other     x x x x x 29.84 Unknown
11/28/2020 05:54 AM 35.96 31.28 -15.52 67.10 32.54 9.0 Not Reported 0.00 SW 0.00 SW 1.57 SW x x Other     x x x x x 29.84 Unknown
11/28/2020 05:55 AM 35.78 31.10 -15.52 67.10 32.54 9.0 Not Reported 0.00 SW 0.00 W 1.57 S x x Other     x x x x x 29.84 Unknown
11/28/2020 05:56 AM 35.24 30.74 -15.88 67.10 32.54 9.0 Not Reported 0.89 SW 2.01 NW 2.46 NW x x Other     x x x x x 29.84 Unknown
11/28/2020 05:57 AM 34.88 30.38 -16.24 67.10 32.54 9.0 Not Reported 1.57 NW 1.12 SW 2.46 NW x x Other     x x x x x 29.84 Unknown
11/28/2020 05:58 AM 34.52 30.02 -16.60 67.10 32.54 9.0 Not Reported 1.57 SW 1.79 SW 2.46 NW x x Other     x x x x x 29.84 Unknown
11/28/2020 05:59 AM 34.16 29.84 -16.78 67.10 32.54 9.0 Not Reported 1.57 S 0.89 S 2.46 NW x x Other     x x x x x 29.84 Unknown
11/28/2020 06:00 AM 34.34 29.84 -16.78 67.10 32.54 9.0 Not Reported 1.34 S 1.79 S 2.46 NW x x Other     x x x x x 29.84 Unknown
11/28/2020 06:01 AM 33.98 29.66 -16.96 67.10 32.54 9.0 Not Reported 1.57 S 2.46 S 2.46 NW x x Other     x x x x x 29.84 Unknown
11/28/2020 06:02 AM 34.16 29.84 -16.78 67.10 32.54 9.0 Not Reported 2.01 S 2.24 S 2.46 NW x x Other     x x x x x 29.84 Unknown
11/28/2020 06:03 AM 34.16 29.84 -16.78 67.10 32.54 9.0 Not Reported 2.24 S 2.24 S 2.68 S x x Other     x x x x x 29.84 Unknown
11/28/2020 06:04 AM 34.16 29.84 -16.78 67.10 32.54 9.0 Not Reported 2.24 S 2.01 S 2.68 S x x Other     x x x x x 29.84 Unknown
11/28/2020 06:05 AM 34.16 29.84 -16.78 67.10 32.54 9.0 Not Reported 2.01 S 2.01 S 2.68 S x x Other     x x x x x 29.84 Unknown
11/28/2020 06:06 AM 34.16 29.84 -16.78 67.10 32.54 9.0 Not Reported 1.57 S 1.57 S 2.68 S x x Other     x x x x x 29.84 Unknown
11/28/2020 06:07 AM 34.16 29.84 -16.78 67.10 32.54 9.0 Not Reported 1.12 S 1.34 S 2.68 S x x Other     x x x x x 29.84 Unknown
11/28/2020 06:08 AM 33.98 29.66 -16.96 67.10 32.54 9.0 Not Reported 1.12 S 1.12 S 2.68 S x x Other     x x x x x 29.84 Unknown
11/28/2020 06:09 AM 33.80 29.48 -17.14 67.10 32.54 9.0 Not Reported 1.57 S 2.01 S 2.68 S x x Other     x x x x x 29.84 Unknown
11/28/2020 06:10 AM 33.62 29.30 -17.32 67.10 32.54 9.0 Not Reported 1.79 S 2.46 S 2.68 S x x Other     x x x x x 29.84 Unknown
11/28/2020 06:11 AM 33.26 29.12 -17.50 67.10 32.54 9.0 Not Reported 2.46 S 2.68 S 3.13 S x x Other     x x x x x 29.84 Unknown
11/28/2020 06:12 AM 33.08 28.94 -17.68 67.10 32.54 9.0 Not Reported 2.68 S 2.01 S 3.13 S x x Other     x x x x x 29.84 Unknown
11/28/2020 06:13 AM 33.08 28.76 -17.68 67.10 32.54 9.0 Not Reported 1.79 S 0.00 S 3.13 S x x Other     x x x x x 29.84 Unknown
11/28/2020 06:14 AM 32.90 28.76 -17.86 67.10 32.54 9.0 Not Reported 0.89 S 0.89 S 3.13 S x x Other     x x x x x 29.84 Unknown
11/28/2020 06:15 AM 32.72 28.76 -17.86 67.10 32.54 9.0 Not Reported 1.12 S 1.34 S 3.13 S x x Other     x x x x x 29.84 Unknown
11/28/2020 06:16 AM 32.90 28.58 -17.86 67.10 32.54 9.0 Not Reported 1.79 S 2.91 S 3.13 S x x Other     x x x x x 29.84 Unknown
11/28/2020 06:17 AM 32.72 28.58 -17.86 67.10 32.54 9.0 Not Reported 2.68 S 3.80 S 4.03 S x x Other     x x x x x 29.84 Unknown
11/28/2020 06:18 AM 32.54 28.58 -18.04 67.10 32.54 9.0 Not Reported 2.91 S 1.57 S 4.03 S x x Other     x x x x x 29.84 Unknown
11/28/2020 06:19 AM 32.54 28.40 -18.04 67.10 32.54 9.0 Not Reported 2.24 S 2.46 S 4.03 S x x Other     x x x x x 29.84 Unknown
11/28/2020 06:20 AM 32.54 28.40 -18.22 67.10 32.54 9.0 Not Reported 2.01 S 2.24 S 4.03 S x x Other     x x x x x 29.84 Unknown
11/28/2020 06:22 AM 32.18 28.22 -18.40 67.10 32.18 9.0 Not Reported 2.68 S 2.24 S 4.03 S x x Other     x x x x x 29.84 Unknown
11/28/2020 06:23 AM 32.18 28.04 -18.40 67.10 32.18 9.0 Not Reported 2.91 S 3.58 S 4.03 S x x Other     x x x x x 29.84 Unknown
11/28/2020 06:24 AM 32.00 28.04 -18.58 67.10 32.00 9.0 Not Reported 3.13 S 3.58 S 4.03 S x x Other     x x x x x 29.84 Unknown
11/28/2020 06:26 AM 31.82 27.86 -18.58 67.10 31.82 9.0 Not Reported 2.68 S 3.13 S 4.03 S x x Other     x x x x x 29.84 Unknown
11/28/2020 06:27 AM 32.00 27.86 -18.58 67.10 31.82 9.0 Not Reported 2.68 S 3.58 S 4.03 S x x Other     x x x x x 29.84 Unknown
11/28/2020 06:28 AM 31.82 27.86 -18.58 67.10 31.82 9.0 Not Reported 2.91 S 2.24 S 4.03 S x x Other     x x x x x 29.84 Unknown
11/28/2020 06:29 AM 31.82 27.86 -18.58 67.10 31.82 9.0 Not Reported 2.91 S 2.68 S 4.03 S x x Other     x x x x x 29.84 Unknown
11/28/2020 06:30 AM 31.82 27.86 -18.58 67.10 31.82 9.0 Not Reported 2.68 S 3.58 SW 4.03 S x x Other     x x x x x 29.84 Unknown
11/28/2020 06:31 AM 31.82 27.86 -18.58 67.10 31.82 9.0 Not Reported 2.91 SW 2.24 SW 4.03 SW x x Other     x x x x x 29.84 Unknown
11/28/2020 06:32 AM 32.00 27.86 -18.58 67.10 31.82 9.0 Not Reported 2.68 S 2.68 SW 4.03 SW x x Other     x x x x x 29.84 Unknown
11/28/2020 06:33 AM 31.64 27.68 -18.76 67.10 31.64 9.0 Not Reported 2.68 S 3.58 SW 4.03 SW x x Other     x x x x x 29.84 Unknown
11/28/2020 06:34 AM 31.64 27.68 -18.76 67.10 31.64 9.0 Not Reported 2.91 SW 2.91 SW 4.03 SW x x Other     x x x x x 29.84 Unknown
11/28/2020 06:35 AM 31.64 27.68 -18.76 67.10 31.46 9.0 Not Reported 2.91 SW 2.68 SW 4.03 SW x x Other     x x x x x 29.84 Unknown
11/28/2020 06:36 AM 31.46 27.50 -18.94 67.10 31.46 9.0 Not Reported 2.68 SW 3.58 SW 4.03 SW x x Other     x x x x x 29.84 Unknown
11/28/2020 06:37 AM 31.46 27.50 -18.94 67.10 31.46 9.0 Not Reported 2.68 SW 1.79 SW 4.03 SW x x Other     x x x x x 29.84 Unknown
11/28/2020 06:38 AM 31.46 27.50 -18.94 67.10 31.46 9.0 Not Reported 2.68 SW 2.46 SW 4.03 SW x x Other     x x x x x 29.84 Unknown
11/28/2020 06:39 AM 31.46 27.50 -18.94 67.10 31.46 9.0 Not Reported 2.91 SW 2.91 SW 4.70 SW x x Other     x x x x x 29.84 Unknown
11/28/2020 06:41 AM 31.28 27.32 -19.12 67.10 31.28 9.0 Not Reported 2.68 SW 3.58 SW 4.70 SW x x Other     x x x x x 29.84 Unknown
11/28/2020 06:42 AM 31.28 27.32 -19.12 67.10 31.28 9.0 Not Reported 3.36 SW 2.24 SW 4.70 SW x x Other     x x x x x 29.84 Unknown
11/28/2020 06:43 AM 31.10 27.32 -19.12 67.10 31.10 9.0 Not Reported 3.36 SW 3.36 SW 4.70 SW x x Other     x x x x x 29.84 Unknown
11/28/2020 06:44 AM 31.28 27.32 -19.12 67.10 31.10 9.0 Not Reported 3.13 S 1.79 SW 4.70 SW x x Other     x x x x x 29.84 Unknown
11/28/2020 06:45 AM 31.28 27.32 -19.12 67.10 31.10 9.0 Not Reported 2.46 S 3.13 SW 4.70 SW x x Other     x x x x x 29.84 Unknown
11/28/2020 06:46 AM 31.46 27.50 -18.94 67.10 31.10 9.0 Not Reported 2.68 SW 3.36 SW 4.70 SW x x Other     x x x x x 29.84 Unknown
11/28/2020 06:47 AM 31.46 27.50 -18.94 67.10 31.10 9.0 Not Reported 3.13 S 3.13 S 4.70 SW x x Other     x x x x x 29.84 Unknown
11/28/2020 06:48 AM 31.64 27.50 -18.76 67.10 31.10 9.0 Not Reported 3.13 SW 1.57 S 4.70 SW x x Other     x x x x x 29.84 Unknown
11/28/2020 06:49 AM 31.64 27.68 -18.76 67.10 31.10 9.0 Not Reported 2.91 SW 2.46 SW 4.70 SW x x Other     x x x x x 29.84 Unknown
11/28/2020 06:50 AM 31.82 27.86 -18.76 67.10 31.10 9.0 Not Reported 2.68 SW 2.91 SW 4.70 SW x x Other     x x x x x 29.84 Unknown
11/28/2020 06:51 AM 31.82 27.86 -18.58 67.10 31.10 9.0 Not Reported 2.91 SW 3.58 SW 4.70 SW x x Other     x x x x x 29.84 Unknown
11/28/2020 06:52 AM 32.00 27.86 -18.58 67.10 31.10 9.0 Not Reported 2.91 SW 3.58 SW 4.03 SW x x Other     x x x x x 29.84 Unknown
11/28/2020 06:53 AM 32.00 28.04 -18.58 67.10 31.10 9.0 Not Reported 2.91 SW 2.01 SW 3.80 S x x Other     x x x x x 29.84 Unknown
11/28/2020 06:54 AM 32.18 28.04 -18.40 67.10 31.10 9.0 Not Reported 2.68 SW 2.68 SW 3.80 S x x Other     x x x x x 29.84 Unknown
11/28/2020 06:55 AM 32.18 28.04 -18.40 67.10 31.10 9.0 Not Reported 2.68 SW 2.46 SW 3.80 SW x x Other     x x x x x 29.84 Unknown
11/28/2020 06:56 AM 32.00 28.04 -18.58 67.10 31.10 9.0 Not Reported 2.68 SW 1.79 S 3.80 SW x x Other     x x x x x 29.84 Unknown
11/28/2020 06:58 AM 32.18 28.04 -18.40 67.10 31.10 9.0 Not Reported 2.68 SW 3.36 SW 4.03 SW x x Other     x x x x x 29.84 Unknown
11/28/2020 06:59 AM 32.18 28.04 -18.40 67.10 31.10 9.0 Not Reported 2.68 SW 2.01 SW 4.03 SW x x Other     x x x x x 29.84 Unknown
11/28/2020 07:00 AM 32.18 28.22 -18.40 67.10 31.10 9.0 Not Reported 2.91 SW 2.24 SW 4.03 SW x x Other     x x x x x 29.84 Unknown
11/28/2020 07:01 AM 32.18 28.22 -18.40 67.10 31.10 9.0 Not Reported 2.68 SW 2.91 SW 4.03 SW x x Other     x x x x x 29.84 Unknown
11/28/2020 07:02 AM 32.36 28.22 -18.22 67.10 31.10 9.0 Not Reported 2.46 SW 2.01 SW 4.03 SW x x Other     x x x x x 29.84 Unknown
11/28/2020 07:03 AM 32.36 28.40 -18.22 67.10 31.10 9.0 Not Reported 2.01 SW 2.91 SW 4.03 SW x x Other     x x x x x 29.84 Unknown
11/28/2020 07:04 AM 32.54 28.40 -18.22 67.10 31.10 9.0 Not Reported 2.46 SW 2.46 S 4.03 SW x x Other     x x x x x 29.84 Unknown
11/28/2020 07:05 AM 32.54 28.58 -18.04 67.10 31.10 9.0 Not Reported 2.68 S 2.91 SW 4.03 SW x x Other     x x x x x 29.84 Unknown
11/28/2020 07:06 AM 32.54 28.58 -18.04 67.10 31.10 9.0 Not Reported 2.68 SW 2.24 SW 3.80 SW x x Other     x x x x x 29.84 Unknown
11/28/2020 07:07 AM 32.72 28.58 -18.04 67.10 31.10 9.0 Not Reported 2.91 SW 2.46 S 3.80 SW x x Other     x x x x x 29.84 Unknown
11/28/2020 07:08 AM 32.72 28.58 -17.86 67.10 31.10 9.0 Not Reported 2.68 S 2.46 SW 3.80 SW x x Other     x x x x x 29.84 Unknown
11/28/2020 07:09 AM 32.72 28.58 -17.86 67.10 31.10 9.0 Not Reported 2.46 SW 1.79 SW 3.80 SW x x Other     x x x x x 29.84 Unknown
11/28/2020 07:10 AM 32.90 28.76 -17.86 67.10 31.10 9.0 Not Reported 2.24 SW 2.46 S 3.80 SW x x Other     x x x x x 29.84 Unknown
11/28/2020 07:11 AM 32.90 28.76 -17.86 67.10 31.10 9.0 Not Reported 2.24 SW 2.01 S 3.80 SW x x Other     x x x x x 29.84 Unknown
11/28/2020 07:12 AM 33.08 28.94 -17.68 67.10 31.10 9.0 Not Reported 2.24 S 0.89 S 3.80 SW x x Other     x x x x x 29.84 Unknown
11/28/2020 07:13 AM 33.08 28.94 -17.68 67.10 31.10 9.0 Not Reported 2.24 SW 2.68 SW 3.80 SW x x Other     x x x x x 29.84 Unknown
11/28/2020 07:14 AM 33.08 28.94 -17.68 67.10 31.10 9.0 Not Reported 2.24 SW 2.68 SW 3.80 SW x x Other     x x x x x 29.84 Unknown
11/28/2020 07:15 AM 33.08 28.94 -17.68 67.10 31.10 9.0 Not Reported 2.01 SW 1.79 S 3.80 SW x x Other     x x x x x 29.84 Unknown
11/28/2020 07:16 AM 33.08 28.94 -17.68 67.10 31.10 9.0 Not Reported 1.79 SW 2.24 SW 3.80 SW x x Other     x x x x x 29.84 Unknown
11/28/2020 07:17 AM 33.26 28.94 -17.50 67.10 31.10 9.0 Not Reported 2.01 SW 2.24 SW 3.80 SW x x Other     x x x x x 29.84 Unknown
11/28/2020 07:18 AM 33.26 28.94 -17.50 67.10 31.10 9.0 Not Reported 2.01 SW 3.80 SW 3.80 SW x x Other     x x x x x 29.84 Unknown
11/28/2020 07:19 AM 33.26 29.12 -17.50 67.10 31.10 9.0 Not Reported 2.24 SW 1.12 S 3.80 SW x x Other     x x x x x 29.84 Unknown
11/28/2020 07:20 AM 33.44 29.12 -17.50 67.10 31.10 9.0 Not Reported 2.24 SW 3.58 SW 3.80 SW x x Other     x x x x x 29.84 Unknown
11/28/2020 07:21 AM 33.44 29.12 -17.32 67.10 31.10 9.0 Not Reported 2.46 SW 2.24 SW 3.80 SW x x Other     x x x x x 29.84 Unknown
11/28/2020 07:22 AM 33.62 29.30 -17.32 67.10 31.10 9.0 Not Reported 2.24 S 1.79 SW 3.80 SW x x Other     x x x x x 29.84 Unknown
11/28/2020 07:23 AM 33.62 29.30 -17.32 67.10 31.10 9.0 Not Reported 2.01 S 1.34 SW 3.80 SW x x Other     x x x x x 29.84 Unknown
11/28/2020 07:24 AM 33.80 29.48 -17.14 67.10 31.10 9.0 Not Reported 2.01 SW 1.57 S 3.80 SW x x Other     x x x x x 29.84 Unknown
11/28/2020 07:25 AM 33.80 29.48 -17.14 67.10 31.10 9.0 Not Reported 1.79 S 2.24 SW 3.80 SW x x Other     x x x x x 29.84 Unknown
11/28/2020 07:26 AM 33.80 29.48 -17.14 67.10 31.10 9.0 Not Reported 2.01 S 2.01 S 3.80 SW x x Other     x x x x x 29.84 Unknown
11/28/2020 07:27 AM 33.80 29.48 -17.14 67.10 31.10 9.0 Not Reported 2.01 S 1.79 S 3.80 SW x x Other     x x x x x 29.84 Unknown
11/28/2020 07:28 AM 33.80 29.48 -17.14 67.10 31.10 9.0 Not Reported 1.57 S 1.79 S 3.58 SW x x Other     x x x x x 29.84 Unknown
11/28/2020 07:30 AM 33.98 29.66 -16.96 67.10 31.10 9.0 Not Reported 1.57 S 2.01 S 3.13 SW x x Other     x x x x x 29.84 Unknown
11/28/2020 07:31 AM 34.16 29.84 -16.78 67.10 31.10 9.0 Not Reported 1.79 SW 1.12 SW 3.13 SW x x Other     x x x x x 29.84 Unknown
11/28/2020 07:32 AM 34.34 29.84 -16.78 67.10 31.10 9.0 Not Reported 1.57 SW 2.01 SW 2.91 S x x Other     x x x x x 29.84 Unknown
11/28/2020 07:33 AM 34.34 30.02 -16.60 67.10 31.10 9.0 Not Reported 1.57 SW 2.24 SW 2.91 S x x Other     x x x x x 29.84 Unknown
11/28/2020 07:34 AM 34.34 30.02 -16.60 67.10 31.10 9.0 Not Reported 1.57 S 1.12 S 2.91 S x x Other     x x x x x 29.84 Unknown
11/28/2020 07:35 AM 34.52 30.02 -16.60 67.10 31.10 9.0 Not Reported 1.79 S 2.24 SW 4.03 S x x Other     x x x x x 29.84 Unknown
11/28/2020 07:37 AM 34.88 30.38 -16.24 67.10 31.10 9.0 Not Reported 2.01 S 1.79 S 4.03 S x x Other     x x x x x 29.84 Unknown
11/28/2020 07:38 AM 35.06 30.56 -16.06 67.10 31.10 9.0 Not Reported 1.79 SW 1.57 S 4.03 S x x Other     x x x x x 29.84 Unknown
11/28/2020 07:39 AM 35.24 30.74 -15.88 67.10 31.10 9.0 Not Reported 1.57 S 1.57 SW 4.03 S x x Other     x x x x x 29.84 Unknown
11/28/2020 07:40 AM 35.24 30.74 -15.88 67.10 31.10 9.0 Not Reported 1.57 S 1.79 SW 4.03 S x x Other     x x x x x 29.84 Unknown
11/28/2020 07:41 AM 35.60 30.92 -15.70 67.10 31.10 9.0 Not Reported 1.34 S 1.79 S 4.03 S x x Other     x x x x x 29.84 Unknown
11/28/2020 07:42 AM 35.60 30.92 -15.70 67.10 31.10 9.0 Not Reported 1.12 S 0.00 SW 4.03 S x x Other     x x x x x 29.84 Unknown
11/28/2020 07:43 AM 35.96 31.28 -15.52 67.10 31.10 9.0 Not Reported 0.89 SE 0.22 SE 4.03 S x x Other     x x x x x 29.84 Unknown
11/28/2020 07:44 AM 36.14 31.46 -15.34 67.10 31.10 9.0 Not Reported 0.67 SE 0.00 S 2.91 S x x Other     x x x x x 29.84 Unknown
11/28/2020 07:45 AM 36.14 31.64 -15.16 67.10 31.10 9.0 Not Reported 0.67 S 0.00 W 2.91 S x x Other     x x x x x 29.84 Unknown
11/28/2020 07:46 AM 36.50 31.82 -14.98 67.10 31.10 9.0 Not Reported 0.45 S 0.89 SW 2.91 S x x Other     x x x x x 29.84 Unknown
11/28/2020 07:47 AM 36.68 31.82 -14.80 67.10 31.10 9.0 Not Reported 0.67 SW 0.00 S 2.91 S x x Other     x x x x x 29.84 Unknown
11/28/2020 07:48 AM 36.86 32.00 -14.80 67.10 31.10 9.0 Not Reported 0.45 S 0.00 SW 2.91 S x x Other     x x x x x 29.84 Unknown
11/28/2020 07:49 AM 37.04 32.18 -14.62 67.10 31.10 9.0 Not Reported 0.22 SW 0.00 SW 2.91 S x x Other     x x x x x 29.84 Unknown
11/28/2020 07:50 AM 37.22 32.36 -14.44 67.10 31.10 9.0 Not Reported 0.22 SW 0.89 S 2.91 S x x Other     x x x x x 29.84 Unknown
11/28/2020 07:51 AM 37.40 32.36 -14.44 67.10 31.10 9.0 Not Reported 0.89 S 0.89 SE 2.91 S x x Other     x x x x x 29.84 Unknown
11/28/2020 07:52 AM 37.40 32.54 -14.26 67.10 31.10 9.0 Not Reported 1.34 S 3.36 S 3.13 S x x Other     x x x x x 29.84 Unknown
11/28/2020 07:53 AM 37.58 32.72 -14.08 67.10 31.10 9.0 Not Reported 1.57 S x S 3.36 S x x Other     x x x x x 29.84 Unknown
11/28/2020 07:54 AM 37.76 32.72 -13.90 67.10 31.10 9.0 Not Reported 1.79 S 1.12 SW 3.36 S x x Other     x x x x x 29.84 Unknown
11/28/2020 07:55 AM 38.12 32.90 -13.72 67.10 31.10 9.0 Not Reported 1.57 S 1.79 S 3.36 S x x Other     x x x x x 29.84 Unknown
11/28/2020 07:56 AM 38.12 33.08 -13.72 67.10 31.10 9.0 Not Reported 1.34 S 0.00 SW 3.36 S x x Other     x x x x x 29.84 Unknown
11/28/2020 07:57 AM 38.48 33.26 -13.54 67.10 31.10 9.0 Not Reported 0.67 SW 0.89 S 3.36 S x x Other     x x x x x 29.84 Unknown
11/28/2020 07:58 AM 38.66 33.44 -13.36 67.10 31.10 9.0 Not Reported 0.67 S 2.24 S 3.36 S x x Other     x x x x x 29.84 Unknown
11/28/2020 07:59 AM 38.66 33.62 -13.18 67.10 31.10 9.0 Not Reported 1.34 S 1.34 SE 3.36 S x x Other     x x x x x 29.84 Unknown
11/28/2020 08:00 AM 38.84 33.62 -13.18 67.10 31.10 9.0 Not Reported 1.12 SE 0.45 S 3.36 S x x Other     x x x x x 29.84 Unknown
11/28/2020 08:01 AM 39.02 33.80 -13.00 67.10 31.10 9.0 Not Reported 0.45 S 0.00 SE 3.36 S x x Other     x x x x x 29.84 Unknown
11/28/2020 08:02 AM 39.20 33.98 -12.82 67.10 31.10 9.0 Not Reported 0.45 SE 0.89 SE 2.68 S x x Other     x x x x x 29.84 Unknown
11/28/2020 08:03 AM 39.56 34.16 -12.64 67.10 31.10 9.0 Not Reported 0.45 SE 0.00 S 2.68 S x x Other     x x x x x 29.84 Unknown
11/28/2020 08:04 AM 39.74 34.34 -12.46 67.10 31.10 9.0 Not Reported 0.45 S 0.00 S 2.68 S x x Other     x x x x x 29.84 Unknown
11/28/2020 08:05 AM 39.92 34.52 -12.46 67.10 31.10 9.0 Not Reported 0.45 S 0.89 SW 2.68 S x x Other     x x x x x 29.84 Unknown
11/28/2020 08:06 AM 40.10 34.70 -12.10 67.10 31.10 9.0 Not Reported 0.67 SW 0.00 S 2.68 S x x Other     x x x x x 29.84 Unknown
11/28/2020 08:07 AM 40.28 34.88 -12.10 67.10 31.10 9.0 Not Reported 0.67 SW 0.00 SW 2.68 S x x Other     x x x x x 29.84 Unknown
11/28/2020 08:08 AM 40.46 35.06 -11.92 67.10 31.10 9.0 Not Reported 0.89 S 1.12 S 2.01 S x x Other     x x x x x 29.84 Unknown
11/28/2020 08:09 AM 40.64 35.24 -11.74 67.10 31.10 9.0 Not Reported 0.67 S 0.67 SW 2.01 SW x x Other     x x x x x 29.84 Unknown
11/28/2020 08:10 AM 40.82 35.24 -11.56 67.10 31.10 9.0 Not Reported 0.89 S 0.00 S 2.46 SE x x Other     x x x x x 29.84 Unknown
11/28/2020 08:11 AM 41.18 35.42 -11.38 67.10 31.10 9.0 Not Reported 1.34 S 2.01 S 2.46 S x x Other     x x x x x 29.84 Unknown
11/28/2020 08:12 AM 41.36 35.60 -11.20 67.10 31.10 9.0 Not Reported 1.12 SW 0.00 SW 2.46 S x x Other     x x x x x 29.84 Unknown
11/28/2020 08:13 AM 41.54 35.78 -11.02 67.10 31.10 9.0 Not Reported 0.45 SW 0.22 SW 2.46 S x x Other     x x x x x 29.84 Unknown
11/28/2020 08:14 AM 41.72 35.96 -10.84 67.10 31.10 9.0 Not Reported 0.45 SW 1.34 SW 2.46 S x x Other     x x x x x 29.84 Unknown
11/28/2020 08:15 AM 41.90 36.14 -10.84 67.10 31.10 9.0 Not Reported 0.67 SW 0.00 SW 2.46 S x x Other     x x x x x 29.84 Unknown
11/28/2020 08:16 AM 42.26 36.32 -10.48 67.10 31.10 9.0 Not Reported 0.45 SW 0.00 SW 2.46 S x x Other     x x x x x 29.84 Unknown
11/28/2020 08:17 AM 42.44 36.50 -10.48 67.10 31.10 9.0 Not Reported 0.45 S 0.67 S 2.46 S x x Other     x x x x x 29.84 Unknown
11/28/2020 08:18 AM 42.62 36.68 -10.12 67.10 31.10 9.0 Not Reported 0.45 SW 1.34 SE 2.46 S x x Other     x x x x x 29.84 Unknown
11/28/2020 08:19 AM 42.80 36.86 -10.12 67.10 31.10 9.0 Not Reported 0.45 SW 0.00 SW 2.46 S x x Other     x x x x x 29.84 Unknown
11/28/2020 08:20 AM 43.16 37.04 -9.76 67.10 31.10 9.0 Not Reported 0.45 S 0.67 S 2.46 S x x Other     x x x x x 29.84 Unknown
11/28/2020 08:21 AM 43.52 37.40 -9.58 67.10 31.10 9.0 Not Reported 0.22 S 0.89 SW 1.57 SW x x Other     x x x x x 29.84 Unknown
11/28/2020 08:22 AM 43.70 37.58 -9.40 67.10 31.10 9.0 Not Reported 0.45 W 1.34 S 1.57 SW x x Other     x x x x x 29.84 Unknown
11/28/2020 08:23 AM 43.88 37.76 -9.22 67.10 31.10 9.0 Not Reported 0.45 SW 0.00 SW 1.57 SW x x Other     x x x x x 29.84 Unknown
11/28/2020 08:24 AM 44.24 38.12 -9.04 67.10 31.10 9.0 Not Reported 0.22 SW 0.67 SE 1.57 S x x Other     x x x x x 29.84 Unknown
11/28/2020 08:25 AM 44.42 38.12 -8.86 67.10 31.10 9.0 Not Reported 0.89 SW 3.13 S 3.13 SW x x Other     x x x x x 29.84 Unknown
11/28/2020 08:26 AM 44.60 38.30 -8.68 67.10 31.10 9.0 Not Reported 1.34 S 1.79 SW 3.13 SW x x Other     x x x x x 29.84 Unknown
11/28/2020 08:27 AM 44.96 38.48 -8.50 67.10 31.10 9.0 Not Reported 1.34 S 0.00 SW 3.13 SW x x Other     x x x x x 29.84 Unknown
11/28/2020 08:28 AM 45.14 38.66 -8.32 67.10 31.10 9.0 Not Reported 1.12 S 0.00 S 3.13 SW x x Other     x x x x x 29.84 Unknown
11/28/2020 08:29 AM 45.32 38.84 -8.14 67.10 31.10 9.0 Not Reported 0.22 S 0.00 S 3.13 SW x x Other     x x x x x 29.84 Unknown
11/28/2020 08:30 AM 45.50 39.02 -7.96 67.10 31.10 9.0 Not Reported 0.22 S 1.12 S 3.13 SW x x Other     x x x x x 29.84 Unknown
11/28/2020 08:31 AM 45.86 39.20 -7.78 67.10 31.10 9.0 Not Reported 0.22 SW 0.00 SW 3.13 SW x x Other     x x x x x 29.84 Unknown
11/28/2020 08:32 AM 46.22 39.56 -7.42 67.10 31.10 9.0 Not Reported 0.00 SW 0.67 S 3.13 SW x x Other     x x x x x 29.84 Unknown
11/28/2020 08:33 AM 46.22 39.56 -7.42 67.10 31.10 9.0 Not Reported 0.22 SW 0.00 W 3.13 SW x x Other     x x x x x 29.84 Unknown
11/28/2020 08:34 AM 46.58 39.92 -7.06 67.10 31.10 9.0 Not Reported 0.22 NW 0.89 W 3.13 SW x x Other     x x x x x 29.84 Unknown
11/28/2020 08:35 AM 46.76 39.92 -7.06 67.10 31.10 9.0 Not Reported 0.22 NW 0.00 SW 2.68 S x x Other     x x x x x 29.84 Unknown
11/28/2020 08:36 AM 46.94 40.10 -6.88 67.10 31.10 9.0 Not Reported 0.22 W 0.67 W 1.79 SE x x Other     x x x x x 29.84 Unknown
11/28/2020 08:37 AM 47.30 40.28 -6.70 67.10 31.10 9.0 Not Reported 0.45 W 1.34 SW 1.79 SE x x Other     x x x x x 29.84 Unknown
11/28/2020 08:38 AM 47.48 40.46 -6.52 67.10 31.10 9.0 Not Reported 0.67 W 0.22 SW 1.79 SE x x Other     x x x x x 29.84 Unknown
11/28/2020 08:39 AM 47.66 40.64 -6.34 67.10 31.10 9.0 Not Reported 0.45 W 0.00 W 1.79 SE x x Other     x x x x x 29.84 Unknown
11/28/2020 08:41 AM 47.84 41.00 -6.16 67.10 31.10 9.0 Not Reported 0.45 SW 0.00 W 1.79 SE x x Other     x x x x x 29.84 Unknown
11/28/2020 08:42 AM 48.20 41.00 -5.80 67.10 31.10 9.0 Not Reported 0.22 SW 0.89 S 1.57 SW x x Other     x x x x x 29.84 Unknown
11/28/2020 08:43 AM 48.38 41.18 -5.80 67.10 31.10 9.0 Not Reported 0.22 W 1.57 W 1.57 SW x x Other     x x x x x 29.84 Unknown
11/28/2020 08:44 AM 48.56 41.36 -5.62 67.10 31.10 9.0 Not Reported 0.67 NW 0.00 NW 1.79 W x x Other     x x x x x 29.84 Unknown
11/28/2020 08:45 AM 48.74 41.36 -5.44 67.10 31.10 9.0 Not Reported 0.45 NW 1.34 NW 1.79 W x x Other     x x x x x 29.84 Unknown
11/28/2020 08:46 AM 48.92 41.54 -5.44 67.10 31.10 9.0 Not Reported 0.45 NW 0.22 NW 1.79 NW x x Other     x x x x x 29.84 Unknown
11/28/2020 08:47 AM 49.10 41.72 -5.08 67.10 31.10 9.0 Not Reported 0.89 NW 0.00 NE 2.01 NW x x Other     x x x x x 29.84 Unknown
11/28/2020 08:48 AM 49.28 41.90 -5.08 67.10 31.10 9.0 Not Reported 0.67 NW 0.00 N 2.01 NW x x Other     x x x x x 29.84 Unknown
11/28/2020 08:49 AM 49.46 42.08 -4.90 67.10 31.10 9.0 Not Reported 0.45 SW 0.89 S 2.01 NW x x Other     x x x x x 29.84 Unknown
11/28/2020 08:50 AM 49.64 42.08 -4.72 67.10 31.10 9.0 Not Reported 0.67 NW 1.34 NW 2.01 NW x x Other     x x x x x 29.84 Unknown
11/28/2020 08:51 AM 49.82 42.26 -4.72 67.10 31.10 9.0 Not Reported 0.89 NW 0.00 NW 2.01 NW x x Other     x x x x x 29.84 Unknown
11/28/2020 08:52 AM 50.00 42.44 -4.54 67.10 31.10 9.0 Not Reported 0.45 N 0.00 NW 2.01 NW x x Other     x x x x x 29.84 Unknown
11/28/2020 08:53 AM 50.18 42.44 -4.36 67.10 31.10 9.0 Not Reported 0.67 N 1.34 W 2.01 N x x Other     x x x x x 29.84 Unknown
11/28/2020 08:54 AM 50.18 42.62 -4.36 67.10 31.10 9.0 Not Reported 0.89 NW 0.00 S 2.01 N x x Other     x x x x x 29.84 Unknown
11/28/2020 08:55 AM 50.36 42.80 -4.18 67.10 31.10 9.0 Not Reported 0.45 NW 0.00 S 2.46 NW x x Other     x x x x x 29.84 Unknown
11/28/2020 08:56 AM 50.54 42.98 -4.00 67.10 31.10 9.0 Not Reported 0.89 S 1.79 SE 3.36 SW x x Other     x x x x x 29.84 Unknown
11/28/2020 08:57 AM 50.90 43.16 -3.82 67.10 31.10 9.0 Not Reported 1.34 SE 0.89 N 3.36 SW x x Other     x x x x x 29.84 Unknown
11/28/2020 08:58 AM 51.08 43.16 -3.64 67.10 31.10 9.0 Not Reported 0.89 N 0.89 NW 3.36 SW x x Other     x x x x x 29.84 Unknown
11/28/2020 08:59 AM 51.26 43.34 -3.46 67.10 31.10 9.0 Not Reported 0.45 NE 1.34 NE 3.36 SW x x Other     x x x x x 29.84 Unknown
11/28/2020 09:00 AM 51.44 43.34 -3.46 67.10 31.10 9.0 Not Reported 0.89 NE 0.67 N 3.36 SW x x Other     x x x x x 29.84 Unknown
11/28/2020 09:01 AM 51.44 43.52 -3.46 67.10 31.10 9.0 Not Reported 1.12 N 1.12 N 3.36 SW x x Other     x x x x x 29.84 Unknown
11/28/2020 09:02 AM 51.44 43.52 -3.28 67.10 31.10 9.0 Not Reported 0.89 N 1.34 N 3.36 SW x x Other     x x x x x 29.84 Unknown
11/28/2020 09:03 AM 51.44 43.52 -3.28 67.10 31.10 9.0 Not Reported 0.89 N 1.57 N 3.36 SW x x Other     x x x x x 29.84 Unknown
11/28/2020 09:04 AM 51.62 43.70 -3.10 67.10 31.10 9.0 Not Reported 1.34 N 1.79 N 3.36 SW x x Other     x x x x x 29.84 Unknown
11/28/2020 09:05 AM 51.80 43.70 -3.10 67.10 31.10 9.0 Not Reported 1.79 N 2.01 N 2.68 N x x Other     x x x x x 29.84 Unknown
11/28/2020 09:06 AM 51.80 43.70 -3.10 67.10 31.10 9.0 Not Reported 1.57 N 0.00 E 2.68 N x x Other     x x x x x 29.84 Unknown
11/28/2020 09:07 AM 51.80 43.70 -3.10 67.10 31.10 9.0 Not Reported 0.45 E 0.00 SE 2.68 N x x Other     x x x x x 29.84 Unknown
11/28/2020 09:08 AM 51.80 43.70 -3.10 67.10 31.10 9.0 Not Reported 0.67 N 1.57 N 2.68 N x x Other     x x x x x 29.84 Unknown
11/28/2020 09:09 AM 51.98 43.88 -2.92 67.10 31.10 9.0 Not Reported 1.12 N 1.12 N 2.68 N x x Other     x x x x x 29.84 Unknown
11/28/2020 09:10 AM 52.16 44.06 -2.74 67.10 31.10 9.0 Not Reported 1.34 N 2.24 N 2.68 N x x Other     x x x x x 29.84 Unknown
11/28/2020 09:11 AM 52.34 44.06 -2.56 67.10 31.10 9.0 Not Reported 1.79 N 1.34 N 3.13 NW x x Other     x x x x x 29.84 Unknown
11/28/2020 09:12 AM 52.52 44.24 -2.56 67.10 31.10 9.0 Not Reported 1.79 N 0.00 SE 3.13 NW x x Other     x x x x x 29.84 Unknown
11/28/2020 09:13 AM 52.52 44.24 -2.56 67.10 31.10 9.0 Not Reported 1.34 SE 1.12 N 3.13 NW x x Other     x x x x x 29.84 Unknown
11/28/2020 09:14 AM 52.70 44.42 -2.38 67.10 31.10 9.0 Not Reported 1.34 N 2.46 N 3.13 NW x x Other     x x x x x 29.84 Unknown
11/28/2020 09:15 AM 52.70 44.42 -2.38 67.10 31.10 9.0 Not Reported 2.24 N 2.24 N 3.58 N x x Other     x x x x x 29.84 Unknown
11/28/2020 09:16 AM 52.88 44.60 -2.20 67.10 31.10 9.0 Not Reported 2.46 N 2.68 N 3.58 N x x Other     x x x x x 29.84 Unknown
11/28/2020 09:17 AM 52.88 44.60 -2.20 67.10 31.10 9.0 Not Reported 2.91 N 2.68 N 4.03 N x x Other     x x x x x 29.84 Unknown
11/28/2020 09:18 AM 52.88 44.60 -2.20 67.10 31.10 9.0 Not Reported 2.91 N 1.79 NE 4.03 N x x Other     x x x x x 29.84 Unknown
11/28/2020 09:19 AM 52.88 44.60 -2.20 67.10 31.10 9.0 Not Reported 2.46 N 5.14 N 5.14 N x x Other     x x x x x 29.84 Unknown
11/28/2020 09:20 AM 52.88 44.60 -2.20 67.10 31.10 9.0 Not Reported 2.91 N 4.03 N 5.14 N x x Other     x x x x x 29.84 Unknown
11/28/2020 09:21 AM 52.88 44.60 -2.20 67.10 31.10 9.0 Not Reported 3.58 N 3.58 N 5.14 N x x Other     x x x x x 29.84 Unknown
11/28/2020 09:22 AM 52.88 44.60 -2.20 67.10 31.10 9.0 Not Reported 3.36 N 2.91 NE 5.14 N x x Other     x x x x x 29.84 Unknown
11/28/2020 09:23 AM 52.88 44.60 -2.20 67.10 31.10 9.0 Not Reported 3.36 N 2.24 N 5.37 N x x Other     x x x x x 29.84 Unknown
11/28/2020 09:24 AM 52.88 44.60 -2.20 67.10 31.10 9.0 Not Reported 3.80 N 4.47 N 5.37 N x x Other     x x x x x 29.84 Unknown
11/28/2020 09:25 AM 53.06 44.78 -2.02 67.10 31.10 9.0 Not Reported 4.25 N 4.92 N 5.37 N x x Other     x x x x x 29.84 Unknown
11/28/2020 09:26 AM 53.24 44.78 -2.02 67.10 31.10 9.0 Not Reported 4.03 N 3.80 N 5.37 N x x Other     x x x x x 29.84 Unknown
11/28/2020 09:27 AM 53.24 44.78 -2.02 67.10 31.10 9.0 Not Reported 3.36 N 2.24 N 5.37 N x x Other     x x x x x 29.84 Unknown
11/28/2020 09:28 AM 53.24 44.78 -2.02 67.10 31.10 9.0 Not Reported 2.91 N 2.46 N 5.37 N x x Other     x x x x x 29.84 Unknown
11/28/2020 09:29 AM 53.42 44.96 -1.84 67.10 31.10 9.0 Not Reported 3.13 N 2.68 N 5.37 N x x Other     x x x x x 29.84 Unknown
11/28/2020 09:30 AM 53.60 44.96 -1.66 67.10 31.10 9.0 Not Reported 3.80 N 5.37 N 6.26 N x x Other     x x x x x 29.84 Unknown
11/28/2020 09:31 AM 53.60 44.96 -1.66 67.10 31.10 9.0 Not Reported 4.47 N 5.14 N 6.26 N x x Other     x x x x x 29.84 Unknown
11/28/2020 09:32 AM 53.42 44.96 -1.84 67.10 31.10 9.0 Not Reported 4.70 N 4.47 N 6.26 N x x Other     x x x x x 29.84 Unknown
11/28/2020 09:33 AM 53.60 44.96 -1.66 67.10 31.10 9.0 Not Reported 4.25 N 3.80 N 6.26 N x x Other     x x x x x 29.84 Unknown
11/28/2020 09:34 AM 53.60 44.96 -1.66 67.10 31.10 9.0 Not Reported 3.58 N 2.91 NE 6.26 N x x Other     x x x x x 29.84 Unknown
11/28/2020 09:35 AM 53.78 45.32 -1.48 67.10 31.10 9.0 Not Reported 3.13 N 4.03 N 6.26 N x x Other     x x x x x 29.84 Unknown
11/28/2020 09:36 AM 53.78 45.32 -1.48 67.10 31.10 9.0 Not Reported 3.36 N 3.80 N 6.26 N x x Other     x x x x x 29.84 Unknown
11/28/2020 09:37 AM 53.96 45.32 -1.30 67.10 31.10 9.0 Not Reported 3.36 N 3.36 N 6.26 N x x Other     x x x x x 29.84 Unknown
11/28/2020 09:38 AM 54.14 45.50 -1.30 67.10 31.10 9.0 Not Reported 3.58 N 5.37 N 6.49 N x x Other     x x x x x 29.84 Unknown
11/28/2020 09:39 AM 54.32 45.68 -1.12 67.10 31.10 9.0 Not Reported 4.47 N 5.37 N 6.49 N x x Other     x x x x x 29.84 Unknown
11/28/2020 09:40 AM 54.14 45.50 -1.30 67.10 31.10 9.0 Not Reported 4.70 N 3.80 N 6.49 N x x Other     x x x x x 29.84 Unknown
11/28/2020 09:41 AM 54.32 45.68 -1.12 67.10 31.10 9.0 Not Reported 3.58 N 3.36 N 6.49 N x x Other     x x x x x 29.84 Unknown
11/28/2020 09:42 AM 54.50 45.68 -0.94 67.10 31.10 9.0 Not Reported 2.46 NE 1.79 NE 6.49 N x x Other     x x x x x 29.84 Unknown
11/28/2020 09:43 AM 54.68 45.86 -0.94 67.10 31.10 9.0 Not Reported 2.68 N 2.46 NE 6.49 N x x Other     x x x x x 29.84 Unknown
11/28/2020 09:44 AM 54.86 46.04 -0.76 67.10 31.10 9.0 Not Reported 3.36 N 3.80 N 6.49 N x x Other     x x x x x 29.84 Unknown
11/28/2020 09:45 AM 55.04 46.04 -0.58 67.10 31.10 9.0 Not Reported 3.13 N 2.91 NE 6.49 N x x Other     x x x x x 29.84 Unknown
11/28/2020 09:46 AM 55.22 46.22 -0.40 67.10 31.10 9.0 Not Reported 3.13 N 2.68 NE 6.49 N x x Other     x x x x x 29.84 Unknown
11/28/2020 09:47 AM 55.40 46.40 -0.22 67.10 31.10 9.0 Not Reported 2.91 N 4.70 N 6.04 N x x Other     x x x x x 29.84 Unknown
11/28/2020 09:48 AM 55.40 46.40 -0.22 67.10 31.10 9.0 Not Reported 2.46 N 3.80 NE 5.59 N x x Other     x x x x x 29.84 Unknown
11/28/2020 09:49 AM 55.58 46.58 -0.22 67.10 31.10 9.0 Not Reported 2.68 N 1.57 NE 5.37 NE x x Other     x x x x x 29.84 Unknown
11/28/2020 09:50 AM 55.76 46.58 -0.04 67.10 31.10 9.0 Not Reported 3.13 N 2.91 N 5.37 NE x x Other     x x x x x 29.84 Unknown
11/28/2020 09:51 AM 55.94 46.76 0.14 67.10 31.10 9.0 Not Reported 2.91 NE 3.13 NE 5.37 NE x x Other     x x x x x 29.84 Unknown
11/28/2020 09:52 AM 55.94 46.76 0.14 67.10 31.10 9.0 Not Reported 3.13 NE 2.01 NE 5.37 NE x x Other     x x x x x 29.84 Unknown
11/28/2020 09:53 AM 55.94 46.76 0.14 67.10 31.10 9.0 Not Reported 2.91 N 1.34 NE 5.37 NE x x Other     x x x x x 29.84 Unknown
11/28/2020 09:54 AM 56.12 46.94 0.14 67.10 31.10 9.0 Not Reported 2.46 N 4.25 N 5.14 NE x x Other     x x x x x 29.84 Unknown
11/28/2020 09:55 AM 56.30 46.94 0.32 67.10 31.10 9.0 Not Reported 3.13 N 3.58 N 5.14 NE x x Other     x x x x x 29.84 Unknown
11/28/2020 09:56 AM 56.30 47.12 0.50 67.10 31.10 9.0 Not Reported 2.91 N 0.89 N 5.14 NE x x Other     x x x x x 29.84 Unknown
11/28/2020 09:57 AM 56.30 47.12 0.50 67.10 31.10 9.0 Not Reported 2.01 N 2.01 N 5.14 NE x x Other     x x x x x 29.84 Unknown
11/28/2020 09:58 AM 56.48 47.12 0.50 67.10 31.10 9.0 Not Reported 2.46 NE 1.57 NE 5.14 NE x x Other     x x x x x 29.84 Unknown
11/28/2020 09:59 AM 56.84 47.48 0.86 67.10 31.10 9.0 Not Reported 2.68 NE 3.80 NE 5.14 NE x x Other     x x x x x 29.84 Unknown
11/28/2020 10:00 AM 57.02 47.48 0.86 67.10 31.10 9.0 Not Reported 2.46 NE 3.13 N 4.70 N x x Other     x x x x x 29.84 Unknown
11/28/2020 10:01 AM 57.02 47.48 0.86 67.10 31.10 9.0 Not Reported 2.91 N 3.13 N 4.70 N x x Other     x x x x x 29.84 Unknown
11/28/2020 10:02 AM 57.02 47.66 1.04 67.10 31.10 9.0 Not Reported 3.13 N 2.91 N 4.70 N x x Other     x x x x x 29.84 Unknown
11/28/2020 10:03 AM 57.20 47.66 1.04 67.10 31.10 9.0 Not Reported 2.24 N 1.57 NE 4.47 NE x x Other     x x x x x 29.84 Unknown
11/28/2020 10:04 AM 57.38 47.66 1.22 67.10 31.10 9.0 Not Reported 2.24 N 2.91 NE 4.47 N x x Other     x x x x x 29.84 Unknown
11/28/2020 10:05 AM 57.38 47.66 1.22 67.10 31.10 9.0 Not Reported 2.91 N 4.92 N 4.70 N x x Other     x x x x x 29.84 Unknown
11/28/2020 10:06 AM 57.20 47.66 1.04 67.10 31.10 9.0 Not Reported 3.80 N 3.80 N 4.92 N x x Other     x x x x x 29.84 Unknown
11/28/2020 10:07 AM 57.02 47.48 0.86 67.10 31.10 9.0 Not Reported 3.80 N 4.03 N 4.92 N x x Other     x x x x x 29.84 Unknown
11/28/2020 10:08 AM 56.84 47.48 0.86 67.10 31.10 9.0 Not Reported 3.13 N 2.68 E 4.92 N x x Other     x x x x x 29.84 Unknown
11/28/2020 10:09 AM 56.66 47.30 0.68 67.10 31.10 9.0 Not Reported 2.91 N 3.58 N 4.92 N x x Other     x x x x x 29.84 Unknown
11/28/2020 10:10 AM 56.66 47.30 0.68 67.10 31.10 9.0 Not Reported 3.13 N 3.13 N 4.92 N x x Other     x x x x x 29.84 Unknown
11/28/2020 10:11 AM 56.84 47.48 0.86 67.10 31.10 9.0 Not Reported 3.36 N 3.58 N 4.92 N x x Other     x x x x x 29.84 Unknown
11/28/2020 10:12 AM 57.02 47.48 0.86 67.10 31.10 9.0 Not Reported 3.13 N 2.91 N 4.92 N x x Other     x x x x x 29.84 Unknown
11/28/2020 10:13 AM 57.02 47.48 0.86 67.10 31.10 9.0 Not Reported 2.68 NE 0.22 NW 4.92 N x x Other     x x x x x 29.84 Unknown
11/28/2020 10:14 AM 57.20 47.66 1.04 67.10 31.10 9.0 Not Reported 2.46 NE 4.92 NE 4.92 N x x Other     x x x x x 29.84 Unknown
11/28/2020 10:15 AM 57.38 47.66 1.22 67.10 31.10 9.0 Not Reported